WA4BPS Weather Reports


time (UTC)temp
C
wind
direction
speed
KPH
gust
KPH
rain 1hr
cm
rain 24hr
cm
rain mn
cm
humidity
%
barometer
mb
20260904011338 28 169 4.8 8.0 0.00 0.00 0.00 66 1013.2
20260904011236 28 169 4.8 8.0 0.00 0.00 0.00 65 1013.1
20260904011139 28 169 3.2 8.0 0.00 0.00 0.00 65 1013.1
20260904011038 28 171 3.2 8.0 0.00 0.00 0.00 65 1013.1
20260904010940 28 168 3.2 8.0 0.00 0.00 0.00 65 1013.1
20260904010859 28 169 4.8 8.0 0.00 0.00 0.00 66 1013.1
20260904010737 28 169 4.8 8.0 0.00 0.00 0.00 65 1013.1
20260904010634 28 169 4.8 8.0 0.00 0.00 0.00 65 1013.1
20260904010533 28 169 4.8 8.0 0.00 0.00 0.00 65 1013.1
20260904010436 28 169 4.8 8.0 0.00 0.00 0.00 65 1013.1
20260904010333 28 169 4.8 8.0 0.00 0.00 0.00 65 1013.1
20260904010244 28 171 4.8 8.0 0.00 0.00 0.00 65 1013.1
20260904010154 28 172 4.8 8.0 0.00 0.00 0.00 66 1013.1
20260904010031 28 171 3.2 8.0 0.00 0.00 0.00 65 1013.1
20260904005950 28 171 4.8 8.0 0.00 0.00 0.00 65 1013.1
20260904005827 28 172 6.4 8.0 0.00 0.00 0.00 65 1013.1
20260904005729 28 181 3.2 8.0 0.00 0.00 0.00 65 1013.0
20260904005628 28 181 4.8 8.0 0.00 0.00 0.00 65 1013.0
20260904005547 28 182 6.4 8.0 0.00 0.00 0.00 65 1013.0
20260904005424 28 185 4.8 8.0 0.00 0.00 0.00 65 1013.0
20260904005342 28 185 4.8 4.8 0.00 0.00 0.00 64 1013.0
20260904005240 28 185 3.2 4.8 0.00 0.00 0.00 64 1013.0
20260904005138 28 185 3.2 4.8 0.00 0.00 0.00 64 1013.0
20260904005036 28 185 3.2 4.8 0.00 0.00 0.00 64 1013.0
20260904004940 28 185 3.2 4.8 0.00 0.00 0.00 64 1013.0
20260904004838 28 185 3.2 4.8 0.00 0.00 0.00 64 1013.0
20260904004734 28 185 3.2 4.8 0.00 0.00 0.00 64 1013.0
20260904004704 28 181 3.2 4.8 0.00 0.00 0.00 64 1013.0
20260904004542 28 184 3.2 8.0 0.00 0.00 0.00 64 1013.0
20260904004440 28 184 3.2 8.0 0.00 0.00 0.00 63 1013.0
20260904004337 28 185 3.2 8.0 0.00 0.00 0.00 63 1013.0
20260904004240 28 184 1.6 12.9 0.00 0.00 0.00 63 1013.0
20260904004139 28 185 1.6 12.9 0.00 0.00 0.00 63 1013.0
20260904004035 28 182 1.6 12.9 0.00 0.00 0.00 63 1013.0
20260904003933 28 185 1.6 12.9 0.00 0.00 0.00 62 1013.0
20260904003832 28 185 1.6 12.9 0.00 0.00 0.00 62 1013.0
20260904003731 28 185 3.2 12.9 0.00 0.00 0.00 62 1013.0
20260904003629 28 198 3.2 12.9 0.00 0.00 0.00 62 1013.0
20260904003532 28 200 3.2 12.9 0.00 0.00 0.00 62 1013.0
20260904003430 28 199 4.8 12.9 0.00 0.00 0.00 62 1013.0
20260904003327 28 203 6.4 12.9 0.00 0.00 0.00 62 1013.0
20260904003236 28 181 6.4 9.7 0.00 0.00 0.00 62 1013.0
20260904003146 28 152 4.8 9.7 0.00 0.00 0.00 62 1013.0
20260904003042 28 71 4.8 8.0 0.00 0.00 0.00 62 1013.0
20260904002940 28 71 4.8 8.0 0.00 0.00 0.00 62 1013.0
20260904002838 28 71 4.8 8.0 0.00 0.00 0.00 62 1013.0
20260904002756 28 66 4.8 8.0 0.00 0.00 0.00 62 1012.7
20260904002634 29 69 3.2 8.0 0.00 0.00 0.00 62 1012.7
20260904002538 29 69 3.2 8.0 0.00 0.00 0.00 62 1012.7
20260904002437 29 69 3.2 8.0 0.00 0.00 0.00 62 1012.7
20260904002334 29 68 3.2 8.0 0.00 0.00 0.00 62 1012.7
20260904002233 29 68 3.2 8.0 0.00 0.00 0.00 62 1012.7
20260904002133 29 69 3.2 8.0 0.00 0.00 0.00 62 1012.7
20260904002031 29 68 3.2 8.0 0.00 0.00 0.00 62 1012.7
20260904001933 29 65 4.8 8.0 0.00 0.00 0.00 62 1012.7
20260904001833 29 56 4.8 6.4 0.00 0.00 0.00 62 1012.7
20260904001732 29 52 4.8 6.4 0.00 0.00 0.00 61 1012.7
20260904001701 29 44 3.2 4.8 0.00 0.00 0.00 62 1012.7
20260904001538 29 40 3.2 4.8 0.00 0.00 0.00 61 1012.7
20260904001438 29 44 1.6 4.8 0.00 0.00 0.00 61 1012.7
20260904001356 29 42 3.2 4.8 0.00 0.00 0.00 61 1012.7
20260904001235 29 42 3.2 4.8 0.00 0.00 0.00 61 1012.8
20260904001156 29 42 3.2 4.8 0.00 0.00 0.00 61 1012.8
20260904001038 29 42 3.2 4.8 0.00 0.00 0.00 61 1012.8
20260904000936 29 42 0.0 0.0 0.00 0.00 0.00 61 1012.8
20260904000835 29 42 0.0 1.6 0.00 0.00 0.00 61 1012.8
20260904000733 29 40 0.0 3.2 0.00 0.00 0.00 61 1012.8
20260904000632 29 42 0.0 3.2 0.00 0.00 0.00 60 1012.8
20260904000530 29 42 0.0 3.2 0.00 0.00 0.00 61 1012.8
20260904000433 29 40 0.0 3.2 0.00 0.00 0.00 60 1012.8
20260904000333 29 42 0.0 3.2 0.00 0.00 0.00 60 1012.8
20260904000303 29 42 0.0 3.2 0.00 0.00 0.00 59 1012.8
20260904000151 29 42 0.0 3.2 0.00 0.00 0.00 59 1012.8
20260904000028 29 44 0.0 3.2 0.00 0.00 0.00 59 1012.8
20260903235924 29 44 3.2 3.2 0.00 0.00 0.00 60 1012.8
20260903235843 29 42 1.6 3.2 0.00 0.00 0.00 61 1012.8
20260903235742 29 42 1.6 4.8 0.00 0.00 0.00 62 1012.7
20260903235700 30 42 0.0 4.8 0.00 0.00 0.00 62 1012.7
20260903235604 30 42 0.0 4.8 0.00 0.00 0.00 61 1012.7
20260903235440 30 42 0.0 4.8 0.00 0.00 0.00 62 1012.7
20260903235339 30 42 0.0 4.8 0.00 0.00 0.00 61 1012.7
20260903235238 30 42 0.0 4.8 0.00 0.00 0.00 61 1012.7
20260903235156 30 44 1.6 4.8 0.00 0.00 0.00 61 1012.7
20260903235033 30 42 1.6 4.8 0.00 0.00 0.00 62 1012.7
20260903234952 30 42 1.6 4.8 0.00 0.00 0.00 62 1012.7
20260903234829 30 44 1.6 4.8 0.00 0.00 0.00 62 1012.7
20260903234744 30 42 3.2 4.8 0.00 0.00 0.00 62 1012.7
20260903234653 30 41 3.2 4.8 0.00 0.00 0.00 62 1012.7
20260903234531 30 40 3.2 4.8 0.00 0.00 0.00 62 1012.7
20260903234449 30 42 1.6 4.8 0.00 0.00 0.00 62 1012.7
20260903234326 30 41 1.6 3.2 0.00 0.00 0.00 61 1012.7
20260903234245 30 41 1.6 3.2 0.00 0.00 0.00 60 1012.7
20260903234203 30 41 1.6 3.2 0.00 0.00 0.00 60 1012.7
20260903234101 30 41 0.0 3.2 0.00 0.00 0.00 60 1012.7
20260903233940 30 41 0.0 0.0 0.00 0.00 0.00 60 1012.7
20260903233824 30 41 0.0 0.0 0.00 0.00 0.00 60 1012.7
20260903233742 30 41 0.0 0.0 0.00 0.00 0.00 60 1012.7
20260903233640 30 41 0.0 0.0 0.00 0.00 0.00 60 1012.7
20260903233558 30 41 0.0 0.0 0.00 0.00 0.00 60 1012.7
20260903233435 30 41 0.0 0.0 0.00 0.00 0.00 60 1012.7
20260903233354 30 40 0.0 0.0 0.00 0.00 0.00 60 1012.7
20260903233230 30 41 0.0 0.0 0.00 0.00 0.00 60 1012.7
20260903233159 30 41 0.0 0.0 0.00 0.00 0.00 60 1012.7
20260903233040 30 41 0.0 0.0 0.00 0.00 0.00 60 1012.7
20260903232939 30 38 0.0 0.0 0.00 0.00 0.00 60 1012.7
20260903232839 30 41 0.0 0.0 0.00 0.00 0.00 59 1012.7
20260903232757 30 41 0.0 0.0 0.00 0.00 0.00 59 1012.6
20260903232634 30 37 0.0 0.0 0.00 0.00 0.00 59 1012.6
20260903232533 30 41 0.0 0.0 0.00 0.00 0.00 59 1012.6
20260903232432 30 41 0.0 0.0 0.00 0.00 0.00 59 1012.6
20260903232330 30 41 0.0 0.0 0.00 0.00 0.00 59 1012.6
20260903232232 30 41 0.0 0.0 0.00 0.00 0.00 59 1012.6
20260903232130 30 41 0.0 0.0 0.00 0.00 0.00 59 1012.6
20260903232029 30 41 0.0 0.0 0.00 0.00 0.00 59 1012.6
20260903231928 30 41 0.0 0.0 0.00 0.00 0.00 59 1012.6
20260903231829 30 40 0.0 0.0 0.00 0.00 0.00 59 1012.6
20260903231759 30 40 0.0 0.0 0.00 0.00 0.00 59 1012.6
20260903231647 30 41 0.0 0.0 0.00 0.00 0.00 59 1012.6
20260903231529 30 34 0.0 0.0 0.00 0.00 0.00 59 1012.6
20260903231427 30 41 0.0 0.0 0.00 0.00 0.00 59 1012.6
20260903231325 30 42 0.0 0.0 0.00 0.00 0.00 59 1012.6
20260903231243 30 41 0.0 0.0 0.00 0.00 0.00 59 1012.7
20260903231142 30 37 0.0 0.0 0.00 0.00 0.00 59 1012.7
20260903231040 30 41 0.0 1.6 0.00 0.00 0.00 59 1012.7
20260903230938 30 41 0.0 3.2 0.00 0.00 0.00 58 1012.7
20260903230840 30 41 0.0 3.2 0.00 0.00 0.00 58 1012.7
20260903230739 30 38 0.0 3.2 0.00 0.00 0.00 58 1012.7
20260903230636 30 40 0.0 4.8 0.00 0.00 0.00 58 1012.7
20260903230533 30 42 0.0 4.8 0.00 0.00 0.00 58 1012.7
20260903230431 30 41 0.0 4.8 0.00 0.00 0.00 59 1012.7
20260903230329 30 41 0.0 4.8 0.00 0.00 0.00 59 1012.7
20260903230238 30 40 0.0 4.8 0.00 0.00 0.00 59 1012.7
20260903230150 30 38 1.6 4.8 0.00 0.00 0.00 58 1012.7
20260903230031 30 40 0.0 4.8 0.00 0.00 0.00 58 1012.7
20260903225949 30 41 0.0 4.8 0.00 0.00 0.00 58 1012.7
20260903225847 30 37 1.6 4.8 0.00 0.00 0.00 58 1012.7
20260903225746 30 40 3.2 4.8 0.00 0.00 0.00 58 1012.6
20260903225704 30 38 3.2 4.8 0.00 0.00 0.00 58 1012.6
20260903225543 30 40 1.6 3.2 0.00 0.00 0.00 58 1012.6
20260903225441 30 41 1.6 3.2 0.00 0.00 0.00 57 1012.6
20260903225340 30 41 1.6 3.2 0.00 0.00 0.00 57 1012.6
20260903225243 30 41 1.6 3.2 0.00 0.00 0.00 57 1012.6
20260903225142 30 41 0.0 4.8 0.00 0.00 0.00 57 1012.6
20260903225041 30 41 0.0 4.8 0.00 0.00 0.00 56 1012.6
20260903224959 30 40 0.0 8.0 0.00 0.00 0.00 56 1012.6
20260903224857 30 41 0.0 8.0 0.00 0.00 0.00 56 1012.6
20260903224754 30 41 0.0 8.0 0.00 0.00 0.00 56 1012.6
20260903224703 30 40 0.0 8.0 0.00 0.00 0.00 56 1012.6
20260903224539 30 41 1.6 8.0 0.00 0.00 0.00 56 1012.6
20260903224438 30 41 1.6 8.0 0.00 0.00 0.00 56 1012.6
20260903224401 30 41 1.6 8.0 0.00 0.00 0.00 56 1012.6
20260903224238 30 41 3.2 8.0 0.00 0.00 0.00 56 1012.4
20260903224136 30 40 4.8 8.0 0.00 0.00 0.00 56 1012.4
20260903224036 30 41 4.8 8.0 0.00 0.00 0.00 56 1012.4
20260903223936 30 38 1.6 4.8 0.00 0.00 0.00 56 1012.4
20260903223835 30 41 1.6 4.8 0.00 0.00 0.00 56 1012.4
20260903223733 30 37 0.0 4.8 0.00 0.00 0.00 56 1012.4
20260903223635 30 41 3.2 4.8 0.00 0.00 0.00 56 1012.4
20260903223534 30 41 0.0 4.8 0.00 0.00 0.00 56 1012.4
20260903223432 30 41 1.6 4.8 0.00 0.00 0.00 56 1012.4
20260903223330 30 38 0.0 4.8 0.00 0.00 0.00 56 1012.4
20260903223251 30 40 1.6 4.8 0.00 0.00 0.00 56 1012.4
20260903223223 30 41 1.6 4.8 0.00 0.00 0.00 56 1012.4
20260903223037 30 41 3.2 6.4 0.00 0.00 0.00 56 1012.4
20260903222937 30 40 3.2 8.0 0.00 0.00 0.00 56 1012.4
20260903222901 30 40 3.2 8.0 0.00 0.00 0.00 56 1012.4
20260903222739 30 40 4.8 8.0 0.00 0.00 0.00 55 1012.4
20260903222657 30 40 3.2 8.0 0.00 0.00 0.00 55 1012.4
20260903222555 30 40 1.6 8.0 0.00 0.00 0.00 55 1012.4
20260903222433 30 40 0.0 8.0 0.00 0.00 0.00 55 1012.4
20260903222331 30 40 1.6 8.0 0.00 0.00 0.00 55 1012.4
20260903222229 30 40 3.2 8.0 0.00 0.00 0.00 55 1012.4
20260903222149 30 40 4.8 8.0 0.00 0.00 0.00 56 1012.4
20260903222031 30 35 3.2 8.0 0.00 0.00 0.00 56 1012.4
20260903221929 30 40 3.2 8.0 0.00 0.00 0.00 56 1012.4
20260903221828 30 40 0.0 8.0 0.00 0.00 0.00 56 1012.4
20260903221738 30 40 4.8 8.0 0.00 0.00 0.00 56 1012.4
20260903221646 30 40 6.4 8.0 0.00 0.00 0.00 56 1012.4
20260903221524 30 35 3.2 8.0 0.00 0.00 0.00 55 1012.4
20260903221441 30 37 1.6 8.0 0.00 0.00 0.00 55 1012.4
20260903221324 30 35 4.8 8.0 0.00 0.00 0.00 55 1012.4
20260903221243 30 32 4.8 8.0 0.00 0.00 0.00 55 1012.4
20260903221142 30 35 1.6 3.2 0.00 0.00 0.00 55 1012.4
20260903221041 30 35 0.0 1.6 0.00 0.00 0.00 55 1012.4
20260903220939 30 35 0.0 1.6 0.00 0.00 0.00 54 1012.4
20260903220837 30 35 0.0 1.6 0.00 0.00 0.00 55 1012.4
20260903220757 30 35 0.0 1.6 0.00 0.00 0.00 55 1012.4
20260903220633 30 35 0.0 1.6 0.00 0.00 0.00 55 1012.4
20260903220536 30 35 0.0 1.6 0.00 0.00 0.00 54 1012.4
20260903220435 30 35 0.0 3.2 0.00 0.00 0.00 54 1012.4
20260903220336 30 32 0.0 3.2 0.00 0.00 0.00 54 1012.4
20260903220244 30 34 0.0 3.2 0.00 0.00 0.00 54 1012.4
20260903220153 30 34 0.0 3.2 0.00 0.00 0.00 55 1012.4
20260903220029 30 35 0.0 3.2 0.00 0.00 0.00 55 1012.4
20260903215948 30 35 0.0 4.8 0.00 0.00 0.00 55 1012.4
20260903215829 30 34 0.0 4.8 0.00 0.00 0.00 54 1012.4
20260903215727 30 35 0.0 4.8 0.00 0.00 0.00 54 1012.4
20260903215626 30 35 3.2 4.8 0.00 0.00 0.00 54 1012.4
20260903215524 30 34 1.6 4.8 0.00 0.00 0.00 53 1012.4
20260903215441 30 35 1.6 4.8 0.00 0.00 0.00 53 1012.4
20260903215340 30 35 1.6 4.8 0.00 0.00 0.00 52 1012.4
20260903215239 30 34 3.2 4.8 0.00 0.00 0.00 52 1012.4
20260903215142 30 35 3.2 8.0 0.00 0.00 0.00 53 1012.4
20260903215039 30 35 3.2 8.0 0.00 0.00 0.00 54 1012.4
20260903214937 30 34 3.2 8.0 0.00 0.00 0.00 55 1012.4
20260903214835 30 34 3.2 8.0 0.00 0.00 0.00 55 1012.4
20260903214733 30 35 3.2 8.0 0.00 0.00 0.00 55 1012.4
20260903214701 30 35 3.2 9.7 0.00 0.00 0.00 55 1012.4
20260903214539 30 35 3.2 9.7 0.00 0.00 0.00 53 1012.4
20260903214458 30 37 3.2 9.7 0.00 0.00 0.00 52 1012.4
20260903214338 30 34 4.8 9.7 0.00 0.00 0.00 52 1012.4
20260903214237 30 35 6.4 9.7 0.00 0.00 0.00 53 1012.6
20260903214134 30 34 6.4 9.7 0.00 0.00 0.00 53 1012.6
20260903214033 30 37 4.8 9.7 0.00 0.00 0.00 53 1012.6
20260903213931 30 32 4.8 9.7 0.00 0.00 0.00 55 1012.6
20260903213830 30 37 6.4 9.7 0.00 0.00 0.00 55 1012.6
20260903213727 30 37 3.2 9.7 0.00 0.00 0.00 54 1012.6
20260903213631 30 35 3.2 9.7 0.00 0.00 0.00 53 1012.6
20260903213530 30 38 3.2 9.7 0.00 0.00 0.00 53 1012.6
20260903213447 30 37 4.8 9.7 0.00 0.00 0.00 55 1012.6
20260903213325 30 37 4.8 11.3 0.00 0.00 0.00 55 1012.6
20260903213244 30 38 4.8 11.3 0.00 0.00 0.00 55 1012.6
20260903213154 30 37 6.4 11.3 0.00 0.00 0.00 54 1012.6
20260903213030 30 35 4.8 11.3 0.00 0.00 0.00 55 1012.6
20260903212928 30 38 4.8 11.3 0.00 0.00 0.00 55 1012.6
20260903212850 30 38 3.2 11.3 0.00 0.00 0.00 56 1012.6
20260903212728 30 37 6.4 11.3 0.00 0.00 0.00 56 1012.6
20260903212647 30 38 8.0 11.3 0.00 0.00 0.00 55 1012.6
20260903212544 30 37 8.0 11.3 0.00 0.00 0.00 58 1012.6
20260903212502 30 37 9.7 11.3 0.00 0.00 0.00 57 1012.6
20260903212339 30 38 8.0 11.3 0.00 0.00 0.00 57 1012.6
20260903212238 30 34 6.4 11.3 0.00 0.00 0.00 57 1012.6
20260903212134 30 35 4.8 11.3 0.00 0.00 0.00 56 1012.6
20260903212037 30 35 6.4 11.3 0.00 0.00 0.00 56 1012.6
20260903211935 30 37 9.7 11.3 0.00 0.00 0.00 56 1012.6
20260903211833 30 34 8.0 11.3 0.00 0.00 0.00 57 1012.6
20260903211732 30 32 8.0 11.3 0.00 0.00 0.00 57 1012.6
20260903211702 30 30 8.0 12.9 0.00 0.00 0.00 56 1012.6
20260903211542 30 34 8.0 12.9 0.00 0.00 0.00 56 1012.6
20260903211438 30 30 8.0 12.9 0.00 0.00 0.00 56 1012.6
20260903211337 30 31 8.0 12.9 0.00 0.00 0.00 56 1012.6
20260903211240 30 31 6.4 12.9 0.00 0.00 0.00 56 1013.7
20260903211142 30 31 6.4 12.9 0.00 0.00 0.00 56 1013.7
20260903211041 30 31 6.4 16.1 0.00 0.00 0.00 55 1013.7
20260903210938 30 31 8.0 16.1 0.00 0.00 0.00 55 1013.7
20260903210836 30 28 9.7 19.3 0.00 0.00 0.00 54 1013.7
20260903210735 31 28 11.3 19.3 0.00 0.00 0.00 54 1013.7
20260903210636 31 25 9.7 19.3 0.00 0.00 0.00 54 1013.7
20260903210540 31 32 6.4 19.3 0.00 0.00 0.00 55 1013.7
20260903210458 31 32 8.0 19.3 0.00 0.00 0.00 55 1013.7
20260903210336 31 34 11.3 19.3 0.00 0.00 0.00 56 1013.7
20260903210253 31 34 12.9 19.3 0.00 0.00 0.00 54 1013.7
20260903210203 31 47 14.5 19.3 0.00 0.00 0.00 54 1013.7
20260903210040 31 25 14.5 19.3 0.00 0.00 0.00 54 1013.7
20260903205938 31 21 11.3 19.3 0.00 0.00 0.00 55 1013.7
20260903205836 31 42 11.3 19.3 0.00 0.00 0.00 54 1013.7
20260903205739 31 10 12.9 19.3 0.00 0.00 0.00 53 1013.7
20260903205637 31 24 16.1 19.3 0.00 0.00 0.00 53 1013.7
20260903205536 31 27 14.5 19.3 0.00 0.00 0.00 53 1013.7
20260903205435 31 42 12.9 19.3 0.00 0.00 0.00 53 1013.7
20260903205331 32 32 12.9 19.3 0.00 0.00 0.00 52 1013.7
20260903205230 32 48 11.3 19.3 0.00 0.00 0.00 51 1013.7
20260903205128 32 21 12.9 19.3 0.00 0.00 0.00 50 1013.7
20260903205034 32 8 14.5 19.3 0.00 0.00 0.00 50 1013.7
20260903204933 32 51 12.9 19.3 0.00 0.00 0.00 49 1013.7
20260903204830 32 35 14.5 19.3 0.00 0.00 0.00 49 1013.7
20260903204750 32 37 14.5 19.3 0.00 0.00 0.00 49 1013.7
20260903204659 32 32 12.9 19.3 0.00 0.00 0.00 48 1013.7
20260903204536 32 31 9.7 16.1 0.00 0.00 0.00 48 1013.7
20260903204455 32 3 9.7 16.1 0.00 0.00 0.00 47 1013.7
20260903204332 32 38 9.7 12.9 0.00 0.00 0.00 48 1013.7
20260903204234 32 49 11.3 12.9 0.00 0.00 0.00 50 1013.8
20260903204133 32 56 9.7 12.9 0.00 0.00 0.00 50 1013.8
20260903204030 32 343 8.0 11.3 0.00 0.00 0.00 48 1013.8
20260903203947 32 23 8.0 11.3 0.00 0.00 0.00 47 1013.8
20260903203825 32 359 4.8 9.7 0.00 0.00 0.00 51 1013.8
20260903203742 32 261 1.6 4.8 0.00 0.00 0.00 50 1013.8
20260903203640 32 243 0.0 4.8 0.00 0.00 0.00 51 1013.8
20260903203559 32 246 0.0 6.4 0.00 0.00 0.00 52 1013.8
20260903203436 32 244 1.6 8.0 0.00 0.00 0.00 53 1013.8
20260903203339 32 243 3.2 9.7 0.00 0.00 0.00 52 1013.8
20260903203237 32 247 0.0 9.7 0.00 0.00 0.00 52 1013.8
20260903203206 32 246 0.0 9.7 0.00 0.00 0.00 50 1013.8
20260903203041 32 246 0.0 9.7 0.00 0.00 0.00 50 1013.8
20260903202939 32 244 0.0 9.7 0.00 0.00 0.00 49 1013.8
20260903202838 32 246 0.0 9.7 0.00 0.00 0.00 48 1013.8
20260903202757 32 246 1.6 9.7 0.00 0.00 0.00 50 1014.0
20260903202633 32 246 6.4 9.7 0.00 0.00 0.00 51 1014.0
20260903202555 32 246 3.2 9.7 0.00 0.00 0.00 52 1014.0
20260903202433 32 247 1.6 9.7 0.00 0.00 0.00 51 1014.0
20260903202334 32 247 3.2 12.9 0.00 0.00 0.00 52 1014.0
20260903202231 32 240 1.6 12.9 0.00 0.00 0.00 51 1014.0
20260903202130 32 243 0.0 12.9 0.00 0.00 0.00 50 1014.0
20260903202029 32 243 0.0 12.9 0.00 0.00 0.00 51 1014.0
20260903201949 32 240 3.2 12.9 0.00 0.00 0.00 51 1014.0
20260903201830 32 243 3.2 12.9 0.00 0.00 0.00 51 1014.0
20260903201758 32 209 1.6 12.9 0.00 0.00 0.00 51 1014.0
20260903201645 32 206 4.8 12.9 0.00 0.00 0.00 51 1014.0
20260903201542 32 226 6.4 12.9 0.00 0.00 0.00 50 1014.0
20260903201442 32 215 8.0 12.9 0.00 0.00 0.00 50 1014.0
20260903201342 32 184 1.6 12.9 0.00 0.00 0.00 50 1014.0
20260903201240 32 182 3.2 12.9 0.00 0.00 0.00 50 1014.2
20260903201139 32 176 3.2 12.9 0.00 0.00 0.00 51 1014.2
20260903201042 32 236 4.8 12.9 0.00 0.00 0.00 51 1014.2
20260903201000 32 237 8.0 12.9 0.00 0.00 0.00 51 1014.2
20260903200838 32 175 4.8 8.0 0.00 0.00 0.00 50 1014.2
20260903200735 32 171 3.2 11.3 0.00 0.00 0.00 51 1014.2
20260903200634 32 172 1.6 12.9 0.00 0.00 0.00 50 1014.2
20260903200532 32 172 3.2 12.9 0.00 0.00 0.00 50 1014.2
20260903200429 32 174 1.6 12.9 0.00 0.00 0.00 50 1014.2
20260903200327 32 172 3.2 12.9 0.00 0.00 0.00 50 1014.2
20260903200241 32 172 4.8 12.9 0.00 0.00 0.00 49 1014.2
20260903200152 32 128 3.2 12.9 0.00 0.00 0.00 49 1014.2
20260903200050 32 126 4.8 12.9 0.00 0.00 0.00 52 1014.2
20260903195926 32 127 9.7 12.9 0.00 0.00 0.00 51 1014.2
20260903195845 32 134 6.4 12.9 0.00 0.00 0.00 50 1014.2
20260903195742 32 138 9.7 12.9 0.00 0.00 0.00 51 1014.3
20260903195642 32 127 4.8 8.0 0.00 0.00 0.00 50 1014.3
20260903195541 32 130 3.2 8.0 0.00 0.00 0.00 50 1014.3
20260903195443 32 128 1.6 4.8 0.00 0.00 0.00 50 1014.3
20260903195402 31 130 1.6 4.8 0.00 0.00 0.00 49 1014.3
20260903195238 31 128 3.2 4.8 0.00 0.00 0.00 49 1014.3
20260903195137 31 124 3.2 8.0 0.00 0.00 0.00 52 1014.3
20260903195035 32 127 1.6 8.0 0.00 0.00 0.00 52 1014.3
20260903194954 32 121 0.0 8.0 0.00 0.00 0.00 50 1014.3
20260903194832 32 120 0.0 8.0 0.00 0.00 0.00 50 1014.3
20260903194729 32 121 0.0 8.0 0.00 0.00 0.00 51 1014.3
20260903194703 32 121 0.0 8.0 0.00 0.00 0.00 49 1014.3
20260903194540 32 120 0.0 8.0 0.00 0.00 0.00 50 1014.3
20260903194439 32 119 1.6 8.0 0.00 0.00 0.00 51 1014.3
20260903194338 32 121 4.8 8.0 0.00 0.00 0.00 53 1014.3
20260903194236 32 119 3.2 4.8 0.00 0.00 0.00 53 1014.3
20260903194154 32 116 1.6 4.8 0.00 0.00 0.00 53 1014.3
20260903194032 32 113 0.0 4.8 0.00 0.00 0.00 53 1014.3
20260903193935 32 114 0.0 4.8 0.00 0.00 0.00 53 1014.3
20260903193833 32 113 0.0 4.8 0.00 0.00 0.00 53 1014.3
20260903193732 32 113 0.0 4.8 0.00 0.00 0.00 52 1014.3
20260903193630 32 113 3.2 8.0 0.00 0.00 0.00 52 1014.3
20260903193527 32 114 1.6 8.0 0.00 0.00 0.00 52 1014.3
20260903193424 32 112 0.0 8.0 0.00 0.00 0.00 52 1014.3
20260903193344 32 113 0.0 8.0 0.00 0.00 0.00 53 1014.3
20260903193258 32 114 3.2 8.0 0.00 0.00 0.00 53 1014.3
20260903193147 32 114 3.2 8.0 0.00 0.00 0.00 53 1014.3
20260903193048 32 112 0.0 8.0 0.00 0.00 0.00 52 1014.3
20260903193007 32 110 1.6 8.0 0.00 0.00 0.00 50 1014.3
20260903192905 32 113 4.8 8.0 0.00 0.00 0.00 53 1014.3
20260903192742 32 110 4.8 8.0 0.00 0.00 0.00 51 1014.6
20260903192640 32 116 4.8 8.0 0.00 0.00 0.00 52 1014.6
20260903192538 32 113 6.4 8.0 0.00 0.00 0.00 53 1014.6
20260903192436 32 136 3.2 9.7 0.00 0.00 0.00 51 1014.6
20260903192339 32 110 3.2 9.7 0.00 0.00 0.00 50 1014.6
20260903192238 32 109 1.6 9.7 0.00 0.00 0.00 50 1014.6
20260903192136 32 106 0.0 9.7 0.00 0.00 0.00 54 1014.6
20260903192057 32 103 1.6 9.7 0.00 0.00 0.00 51 1014.6
20260903191934 32 109 3.2 9.7 0.00 0.00 0.00 52 1014.6
20260903191853 32 110 1.6 9.7 0.00 0.00 0.00 50 1014.6
20260903191731 32 109 0.0 9.7 0.00 0.00 0.00 50 1014.6
20260903191700 32 109 3.2 9.7 0.00 0.00 0.00 50 1014.6
20260903191603 32 107 3.2 9.7 0.00 0.00 0.00 50 1014.6
20260903191439 32 34 1.6 4.8 0.00 0.00 0.00 49 1014.6
20260903191339 32 35 1.6 4.8 0.00 0.00 0.00 48 1014.6
20260903191258 32 35 1.6 4.8 0.00 0.00 0.00 48 1014.7
20260903191136 32 35 1.6 4.8 0.00 0.00 0.00 47 1014.7
20260903191035 32 35 1.6 4.8 0.00 0.00 0.00 47 1014.7
20260903190932 32 32 3.2 4.8 0.00 0.00 0.00 48 1014.7
20260903190835 32 35 1.6 4.8 0.00 0.00 0.00 48 1014.7
20260903190733 32 34 0.0 4.8 0.00 0.00 0.00 48 1014.7
20260903190632 32 35 0.0 4.8 0.00 0.00 0.00 48 1014.7
20260903190530 32 35 0.0 6.4 0.00 0.00 0.00 49 1014.7
20260903190448 32 35 1.6 6.4 0.00 0.00 0.00 51 1014.7
20260903190326 32 35 1.6 8.0 0.00 0.00 0.00 50 1014.7
20260903190224 32 37 3.2 11.3 0.00 0.00 0.00 50 1014.7
20260903190155 32 35 3.2 11.3 0.00 0.00 0.00 50 1014.7
20260903190035 32 37 3.2 11.3 0.00 0.00 0.00 50 1014.7
20260903185933 32 34 3.2 11.3 0.00 0.00 0.00 50 1014.7
20260903185834 32 37 3.2 11.3 0.00 0.00 0.00 50 1014.7
20260903185733 32 37 4.8 11.3 0.00 0.00 0.00 50 1014.8
20260903185632 32 40 1.6 11.3 0.00 0.00 0.00 50 1014.8
20260903185531 32 40 4.8 11.3 0.00 0.00 0.00 49 1014.8
20260903185435 32 41 8.0 11.3 0.00 0.00 0.00 49 1014.8
20260903185355 32 44 9.7 11.3 0.00 0.00 0.00 50 1014.8
20260903185232 32 25 9.7 11.3 0.00 0.00 0.00 50 1014.8
20260903185131 32 47 4.8 11.3 0.00 0.00 0.00 52 1014.8
20260903185030 32 49 6.4 11.3 0.00 0.00 0.00 51 1014.8
20260903184929 32 49 8.0 11.3 0.00 0.00 0.00 50 1014.8
20260903184826 32 48 4.8 11.3 0.00 0.00 0.00 50 1014.8
20260903184724 32 48 4.8 11.3 0.00 0.00 0.00 51 1014.8
20260903184655 32 205 0.0 4.8 0.00 0.00 0.00 51 1014.8
20260903184532 32 199 0.0 4.8 0.00 0.00 0.00 50 1014.8
20260903184451 32 198 1.6 9.7 0.00 0.00 0.00 49 1014.8
20260903184327 32 192 1.6 9.7 0.00 0.00 0.00 51 1014.8
20260903184227 32 195 0.0 9.7 0.00 0.00 0.00 49 1014.8
20260903184126 32 196 0.0 9.7 0.00 0.00 0.00 49 1014.8
20260903184025 32 196 1.6 9.7 0.00 0.00 0.00 50 1014.8
20260903183924 32 192 0.0 9.7 0.00 0.00 0.00 50 1014.8
20260903183827 32 192 1.6 9.7 0.00 0.00 0.00 50 1014.8
20260903183725 32 192 1.6 9.7 0.00 0.00 0.00 52 1014.8
20260903183642 32 192 4.8 9.7 0.00 0.00 0.00 51 1014.8
20260903183540 32 191 6.4 9.7 0.00 0.00 0.00 51 1014.8
20260903183439 32 138 3.2 6.4 0.00 0.00 0.00 51 1014.8
20260903183336 32 1 3.2 4.8 0.00 0.00 0.00 50 1014.8
20260903183253 32 344 1.6 4.8 0.00 0.00 0.00 49 1014.8
20260903183203 31 346 0.0 4.8 0.00 0.00 0.00 49 1014.8
20260903183024 31 346 1.6 4.8 0.00 0.00 0.00 50 1014.8
20260903182942 31 344 1.6 4.8 0.00 0.00 0.00 50 1014.8
20260903182900 31 344 1.6 4.8 0.00 0.00 0.00 51 1014.8
20260903182757 31 346 1.6 4.8 0.00 0.00 0.00 51 1015.2
20260903182634 31 344 0.0 4.8 0.00 0.00 0.00 51 1015.2
20260903182533 31 344 0.0 4.8 0.00 0.00 0.00 50 1015.2
20260903182431 31 344 3.2 8.0 0.00 0.00 0.00 51 1015.2
20260903182329 31 360 0.0 8.0 0.00 0.00 0.00 51 1015.2
20260903182231 31 360 0.0 8.0 0.00 0.00 0.00 51 1015.2
20260903182130 31 360 0.0 8.0 0.00 0.00 0.00 52 1015.2
20260903182031 31 360 0.0 8.0 0.00 0.00 0.00 52 1015.2
20260903181930 31 360 1.6 8.0 0.00 0.00 0.00 52 1015.2
20260903181828 31 1 3.2 8.0 0.00 0.00 0.00 51 1015.2
20260903181758 31 1 3.2 8.0 0.00 0.00 0.00 51 1015.2
20260903181645 31 1 4.8 8.0 0.00 0.00 0.00 51 1015.2
20260903181543 31 326 3.2 4.8 0.00 0.00 0.00 52 1015.2
20260903181446 31 326 0.0 3.2 0.00 0.00 0.00 53 1015.2
20260903181342 31 326 0.0 3.2 0.00 0.00 0.00 53 1015.2
20260903181240 31 323 0.0 3.2 0.00 0.00 0.00 51 1015.4
20260903181139 31 326 0.0 3.2 0.00 0.00 0.00 52 1015.4
20260903181036 31 323 0.0 3.2 0.00 0.00 0.00 50 1015.4
20260903180934 31 325 0.0 4.8 0.00 0.00 0.00 53 1015.4
20260903180833 31 323 0.0 4.8 0.00 0.00 0.00 54 1015.4
20260903180736 31 325 0.0 4.8 0.00 0.00 0.00 55 1015.4
20260903180635 31 325 1.6 6.4 0.00 0.00 0.00 53 1015.4
20260903180532 31 326 3.2 8.0 0.00 0.00 0.00 53 1015.4
20260903180431 31 328 3.2 9.7 0.00 0.00 0.00 50 1015.4
20260903180331 31 326 1.6 9.7 0.00 0.00 0.00 50 1015.4
20260903180231 31 326 3.2 9.7 0.00 0.00 0.00 52 1015.4
20260903180202 31 326 3.2 9.7 0.00 0.00 0.00 53 1015.4
20260903180042 31 326 1.6 9.7 0.00 0.00 0.00 53 1015.4
20260903175940 31 325 1.6 9.7 0.00 0.00 0.00 54 1015.4
20260903175838 31 326 3.2 9.7 0.00 0.00 0.00 55 1015.4
20260903175736 31 326 4.8 9.7 0.00 0.00 0.00 56 1015.5
20260903175635 31 325 6.4 9.7 0.00 0.00 0.00 55 1015.5
20260903175533 31 360 0.0 9.7 0.00 0.00 0.00 53 1015.5
20260903175431 31 25 0.0 4.8 0.00 0.00 0.00 54 1015.5
20260903175334 31 27 1.6 6.4 0.00 0.00 0.00 53 1015.5
20260903175233 31 24 3.2 6.4 0.00 0.00 0.00 51 1015.5
20260903175132 31 27 3.2 8.0 0.00 0.00 0.00 51 1015.5
20260903175032 31 21 1.6 8.0 0.00 0.00 0.00 53 1015.5
20260903174934 31 24 0.0 9.7 0.00 0.00 0.00 51 1015.5
20260903174832 31 24 0.0 9.7 0.00 0.00 0.00 50 1015.5
20260903174731 31 27 1.6 9.7 0.00 0.00 0.00 51 1015.5
20260903174703 31 25 3.2 9.7 0.00 0.00 0.00 51 1015.5
20260903174541 31 25 4.8 9.7 0.00 0.00 0.00 50 1015.5
20260903174438 31 25 3.2 9.7 0.00 0.00 0.00 50 1015.5
20260903174337 31 25 4.8 9.7 0.00 0.00 0.00 51 1015.5
20260903174235 31 25 4.8 9.7 0.00 0.00 0.00 52 1015.6
20260903174133 31 25 3.2 9.7 0.00 0.00 0.00 54 1015.6
20260903174032 31 23 1.6 4.8 0.00 0.00 0.00 53 1015.6
20260903173933 31 23 1.6 4.8 0.00 0.00 0.00 53 1015.6
20260903173833 31 23 0.0 4.8 0.00 0.00 0.00 54 1015.6
20260903173732 31 23 0.0 6.4 0.00 0.00 0.00 54 1015.6
20260903173631 31 24 0.0 6.4 0.00 0.00 0.00 54 1015.6
20260903173530 31 23 1.6 6.4 0.00 0.00 0.00 55 1015.6
20260903173430 31 23 1.6 6.4 0.00 0.00 0.00 53 1015.6
20260903173332 31 21 1.6 6.4 0.00 0.00 0.00 54 1015.6
20260903173302 31 23 3.2 6.4 0.00 0.00 0.00 56 1015.6
20260903173152 31 23 1.6 6.4 0.00 0.00 0.00 56 1015.6
20260903173028 31 24 3.2 9.7 0.00 0.00 0.00 55 1015.6
20260903172946 31 23 4.8 9.7 0.00 0.00 0.00 55 1015.6
20260903172905 31 24 3.2 9.7 0.00 0.00 0.00 55 1015.6
20260903172803 31 27 1.6 9.7 0.00 0.00 0.00 55 1015.9
20260903172702 31 28 1.6 9.7 0.00 0.00 0.00 54 1015.9
20260903172540 31 24 0.0 9.7 0.00 0.00 0.00 53 1015.9
20260903172438 31 28 3.2 9.7 0.00 0.00 0.00 54 1015.9
20260903172340 31 28 3.2 9.7 0.00 0.00 0.00 52 1015.9
20260903172238 31 27 4.8 9.7 0.00 0.00 0.00 53 1015.9
20260903172158 31 25 3.2 9.7 0.00 0.00 0.00 52 1015.9
20260903172034 31 21 1.6 8.0 0.00 0.00 0.00 51 1015.9
20260903171933 31 21 3.2 8.0 0.00 0.00 0.00 53 1015.9
20260903171831 31 20 4.8 8.0 0.00 0.00 0.00 52 1015.9
20260903171741 31 20 4.8 8.0 0.00 0.00 0.00 53 1015.9
20260903171655 31 20 3.2 8.0 0.00 0.00 0.00 53 1015.9
20260903171553 31 18 4.8 8.0 0.00 0.00 0.00 53 1015.9
20260903171430 31 20 3.2 6.4 0.00 0.00 0.00 54 1015.9
20260903171328 31 17 1.6 6.4 0.00 0.00 0.00 54 1015.9
20260903171227 31 21 3.2 6.4 0.00 0.00 0.00 56 1016.1
20260903171124 31 21 1.6 6.4 0.00 0.00 0.00 56 1016.1
20260903171042 31 21 1.6 8.0 0.00 0.00 0.00 55 1016.1
20260903170939 31 21 1.6 8.0 0.00 0.00 0.00 54 1016.1
20260903170840 31 21 1.6 8.0 0.00 0.00 0.00 53 1016.1
20260903170739 31 21 1.6 8.0 0.00 0.00 0.00 55 1016.1
20260903170637 31 23 3.2 8.0 0.00 0.00 0.00 56 1016.1
20260903170535 31 20 4.8 8.0 0.00 0.00 0.00 56 1016.1
20260903170433 31 20 3.2 8.0 0.00 0.00 0.00 54 1016.1
20260903170332 31 20 3.2 8.0 0.00 0.00 0.00 53 1016.1
20260903170241 31 23 6.4 8.0 0.00 0.00 0.00 53 1016.1
20260903170151 31 21 4.8 8.0 0.00 0.00 0.00 53 1016.1
20260903170032 31 24 3.2 8.0 0.00 0.00 0.00 53 1016.1
20260903165953 31 24 0.0 4.8 0.00 0.00 0.00 55 1016.1
20260903165831 31 23 0.0 4.8 0.00 0.00 0.00 55 1016.1
20260903165729 31 23 3.2 4.8 0.00 0.00 0.00 54 1016.2
20260903165630 31 24 3.2 4.8 0.00 0.00 0.00 54 1016.2
20260903165548 31 24 1.6 4.8 0.00 0.00 0.00 54 1016.2
20260903165427 31 23 0.0 4.8 0.00 0.00 0.00 53 1016.2
20260903165333 31 24 1.6 4.8 0.00 0.00 0.00 53 1016.2
20260903165231 31 25 3.2 4.8 0.00 0.00 0.00 54 1016.2
20260903165130 31 23 0.0 8.0 0.00 0.00 0.00 53 1016.2
20260903165028 31 18 3.2 8.0 0.00 0.00 0.00 53 1016.2
20260903164947 31 25 3.2 8.0 0.00 0.00 0.00 53 1016.2
20260903164905 31 21 3.2 8.0 0.00 0.00 0.00 54 1016.2
20260903164801 31 24 3.2 8.0 0.00 0.00 0.00 54 1016.2
20260903164711 31 25 3.2 8.0 0.00 0.00 0.00 54 1016.2
20260903164549 31 25 3.2 8.0 0.00 0.00 0.00 55 1016.2
20260903164446 31 24 3.2 11.3 0.00 0.00 0.00 55 1016.2
20260903164348 31 25 4.8 11.3 0.00 0.00 0.00 55 1016.2
20260903164246 31 24 4.8 11.3 0.00 0.00 0.00 55 1016.3
20260903164204 31 24 4.8 11.3 0.00 0.00 0.00 55 1016.3
20260903164041 31 24 4.8 11.3 0.00 0.00 0.00 54 1016.3
20260903163939 31 20 1.6 11.3 0.00 0.00 0.00 52 1016.3
20260903163837 31 21 1.6 11.3 0.00 0.00 0.00 51 1016.3
20260903163737 31 23 1.6 11.3 0.00 0.00 0.00 52 1016.3
20260903163634 31 23 4.8 11.3 0.00 0.00 0.00 53 1016.3
20260903163536 31 21 4.8 11.3 0.00 0.00 0.00 54 1016.3
20260903163435 31 6 1.6 8.0 0.00 0.00 0.00 54 1016.3
20260903163333 31 7 0.0 8.0 0.00 0.00 0.00 55 1016.3
20260903163243 31 6 1.6 8.0 0.00 0.00 0.00 56 1016.3
20260903163153 31 6 3.2 8.0 0.00 0.00 0.00 54 1016.3
20260903163032 31 6 3.2 8.0 0.00 0.00 0.00 53 1016.3
20260903162930 31 3 4.8 8.0 0.00 0.00 0.00 55 1016.3
20260903162833 31 7 3.2 8.0 0.00 0.00 0.00 55 1016.3
20260903162732 31 7 3.2 8.0 0.00 0.00 0.00 54 1016.5
20260903162650 31 10 4.8 8.0 0.00 0.00 0.00 53 1016.5
20260903162528 31 11 6.4 8.0 0.00 0.00 0.00 53 1016.5
20260903162425 31 10 3.2 8.0 0.00 0.00 0.00 54 1016.5
20260903162343 31 8 1.6 8.0 0.00 0.00 0.00 54 1016.5
20260903162242 30 8 3.2 8.0 0.00 0.00 0.00 54 1016.5
20260903162124 30 7 4.8 8.0 0.00 0.00 0.00 53 1016.5
20260903162043 30 8 1.6 6.4 0.00 0.00 0.00 52 1016.5
20260903161942 30 10 3.2 6.4 0.00 0.00 0.00 53 1016.5
20260903161839 30 10 4.8 6.4 0.00 0.00 0.00 54 1016.5
20260903161757 30 10 4.8 6.4 0.00 0.00 0.00 54 1016.5
20260903161706 30 10 0.0 6.4 0.00 0.00 0.00 53 1016.5
20260903161542 30 10 0.0 4.8 0.00 0.00 0.00 53 1016.5
20260903161440 30 8 1.6 4.8 0.00 0.00 0.00 53 1016.5
20260903161343 30 10 3.2 4.8 0.00 0.00 0.00 54 1016.5
20260903161241 30 10 3.2 4.8 0.00 0.00 0.00 53 1016.6
20260903161159 30 10 3.2 8.0 0.00 0.00 0.00 53 1016.6
20260903161037 30 7 1.6 8.0 0.00 0.00 0.00 54 1016.6
20260903160955 30 8 1.6 8.0 0.00 0.00 0.00 57 1016.6
20260903160832 30 10 0.0 8.0 0.00 0.00 0.00 56 1016.6
20260903160731 30 8 0.0 8.0 0.00 0.00 0.00 56 1016.6
20260903160627 30 8 3.2 8.0 0.00 0.00 0.00 56 1016.6
20260903160528 30 7 3.2 8.0 0.00 0.00 0.00 58 1016.6
20260903160427 30 8 3.2 8.0 0.00 0.00 0.00 58 1016.6
20260903160326 30 10 6.4 8.0 0.00 0.00 0.00 57 1016.6
20260903160235 30 10 0.0 4.8 0.00 0.00 0.00 56 1016.6
20260903160147 30 8 1.6 4.8 0.00 0.00 0.00 56 1016.6
20260903160043 30 8 1.6 4.8 0.00 0.00 0.00 55 1016.6
20260903155940 30 8 1.6 4.8 0.00 0.00 0.00 56 1016.6
20260903155839 30 7 1.6 4.8 0.00 0.00 0.00 55 1016.6
20260903155742 30 7 0.0 4.8 0.00 0.00 0.00 55 1016.6
20260903155640 30 8 0.0 4.8 0.00 0.00 0.00 56 1016.6
20260903155558 30 8 1.6 4.8 0.00 0.00 0.00 56 1016.6
20260903155436 30 8 3.2 4.8 0.00 0.00 0.00 59 1016.6
20260903155334 30 8 3.2 4.8 0.00 0.00 0.00 58 1016.6
20260903155232 30 8 1.6 4.8 0.00 0.00 0.00 59 1016.6
20260903155130 30 8 3.2 4.8 0.00 0.00 0.00 61 1016.6
20260903155032 30 10 1.6 4.8 0.00 0.00 0.00 62 1016.6
20260903154949 30 8 3.2 4.8 0.00 0.00 0.00 62 1016.6
20260903154828 30 8 0.0 4.8 0.00 0.00 0.00 61 1016.6
20260903154727 30 8 3.2 4.8 0.00 0.00 0.00 61 1016.6
20260903154658 30 23 3.2 4.8 0.00 0.00 0.00 61 1016.6
20260903154535 30 24 3.2 4.8 0.00 0.00 0.00 62 1016.6
20260903154433 29 30 0.0 6.4 0.00 0.00 0.00 64 1016.6
20260903154336 29 27 0.0 8.0 0.00 0.00 0.00 64 1016.6
20260903154235 29 28 0.0 8.0 0.00 0.00 0.00 64 1015.7
20260903154133 29 28 0.0 8.0 0.00 0.00 0.00 64 1015.7
20260903154032 29 28 1.6 8.0 0.00 0.00 0.00 63 1015.7
20260903153953 29 30 3.2 8.0 0.00 0.00 0.00 63 1015.7
20260903153830 29 30 1.6 8.0 0.00 0.00 0.00 63 1015.7
20260903153730 29 30 3.2 8.0 0.00 0.00 0.00 64 1015.7
20260903153634 29 28 3.2 8.0 0.00 0.00 0.00 65 1015.7
20260903153530 29 30 4.8 8.0 0.00 0.00 0.00 65 1015.7
20260903153427 29 45 0.0 3.2 0.00 0.00 0.00 65 1015.7
20260903153325 29 47 0.0 3.2 0.00 0.00 0.00 63 1015.7
20260903153244 29 47 1.6 4.8 0.00 0.00 0.00 63 1015.7
20260903153216 29 47 1.6 4.8 0.00 0.00 0.00 62 1015.7
20260903153031 29 45 3.2 4.8 0.00 0.00 0.00 62 1015.7
20260903152948 29 47 3.2 4.8 0.00 0.00 0.00 66 1015.7
20260903152826 28 47 1.6 4.8 0.00 0.00 0.00 65 1015.7
20260903152727 28 47 0.0 4.8 0.00 0.00 0.00 64 1016.5
20260903152626 28 47 1.6 4.8 0.00 0.00 0.00 64 1016.5
20260903152526 28 45 0.0 4.8 0.00 0.00 0.00 65 1016.5
20260903152424 28 40 3.2 4.8 0.00 0.00 0.00 64 1016.5
20260903152343 28 47 1.6 4.8 0.00 0.00 0.00 64 1016.5
20260903152222 28 47 3.2 4.8 0.00 0.00 0.00 65 1016.5
20260903152126 28 47 3.2 4.8 0.00 0.00 0.00 66 1016.5
20260903152027 28 47 3.2 4.8 0.00 0.00 0.00 68 1016.5
20260903151926 28 47 0.0 4.8 0.00 0.00 0.00 69 1016.5
20260903151826 28 48 0.0 4.8 0.00 0.00 0.00 68 1016.5
20260903151735 28 47 1.6 4.8 0.00 0.00 0.00 68 1016.5
20260903151645 28 47 1.6 4.8 0.00 0.00 0.00 68 1016.5
20260903151542 28 47 1.6 4.8 0.00 0.00 0.00 68 1016.5
20260903151441 28 48 3.2 6.4 0.00 0.00 0.00 70 1016.5
20260903151343 28 48 3.2 6.4 0.00 0.00 0.00 71 1016.5
20260903151243 28 48 3.2 8.0 0.00 0.00 0.00 71 1016.4
20260903151201 28 49 1.6 8.0 0.00 0.00 0.00 71 1016.4
20260903151041 28 49 0.0 8.0 0.00 0.00 0.00 71 1016.4
20260903150940 28 52 1.6 8.0 0.00 0.00 0.00 70 1016.4
20260903150838 28 51 3.2 8.0 0.00 0.00 0.00 70 1016.4
20260903150739 28 52 3.2 8.0 0.00 0.00 0.00 70 1016.4
20260903150642 28 54 4.8 8.0 0.00 0.00 0.00 70 1016.4
20260903150540 28 52 4.8 8.0 0.00 0.00 0.00 71 1016.4
20260903150459 28 56 4.8 8.0 0.00 0.00 0.00 71 1016.4
20260903150337 28 56 3.2 8.0 0.00 0.00 0.00 71 1016.4
20260903150235 28 56 1.6 3.2 0.00 0.00 0.00 71 1016.4
20260903150204 28 49 0.0 3.2 0.00 0.00 0.00 71 1016.4
20260903150041 28 56 0.0 1.6 0.00 0.00 0.00 72 1016.4
20260903145939 28 54 0.0 1.6 0.00 0.00 0.00 72 1016.4
20260903145841 28 54 1.6 1.6 0.00 0.00 0.00 71 1016.4
20260903145759 28 56 0.0 0.0 0.00 0.00 0.00 71 1015.6
20260903145656 28 58 0.0 0.0 0.00 0.00 0.00 71 1015.6
20260903145534 28 56 0.0 0.0 0.00 0.00 0.00 71 1015.6
20260903145432 28 56 0.0 0.0 0.00 0.00 0.00 71 1015.6
20260903145330 28 56 0.0 0.0 0.00 0.00 0.00 71 1015.6
20260903145232 28 56 0.0 0.0 0.00 0.00 0.00 71 1015.6
20260903145136 28 55 0.0 0.0 0.00 0.00 0.00 71 1015.6
20260903145035 28 56 0.0 1.6 0.00 0.00 0.00 71 1015.6
20260903144933 28 52 0.0 1.6 0.00 0.00 0.00 71 1015.6
20260903144830 28 56 0.0 1.6 0.00 0.00 0.00 71 1015.6
20260903144728 28 56 0.0 1.6 0.00 0.00 0.00 71 1015.6
20260903144658 28 55 0.0 1.6 0.00 0.00 0.00 70 1015.6
20260903144536 27 56 0.0 1.6 0.00 0.00 0.00 70 1015.6
20260903144439 27 56 0.0 1.6 0.00 0.00 0.00 70 1015.6
20260903144357 27 54 0.0 1.6 0.00 0.00 0.00 69 1015.6
20260903144255 27 56 0.0 1.6 0.00 0.00 0.00 70 1015.6
20260903144133 27 56 0.0 1.6 0.00 0.00 0.00 69 1015.6
20260903144030 27 56 0.0 1.6 0.00 0.00 0.00 68 1015.6
20260903143930 27 54 1.6 1.6 0.00 0.00 0.00 69 1015.6
20260903143851 27 56 0.0 1.6 0.00 0.00 0.00 70 1015.6
20260903143729 27 56 0.0 1.6 0.00 0.00 0.00 69 1015.6
20260903143630 27 56 0.0 1.6 0.00 0.00 0.00 70 1015.6
20260903143529 27 56 0.0 1.6 0.00 0.00 0.00 71 1015.6
20260903143427 27 55 0.0 1.6 0.00 0.00 0.00 71 1015.6
20260903143327 27 56 0.0 1.6 0.00 0.00 0.00 71 1015.6
20260903143225 27 56 0.0 1.6 0.00 0.00 0.00 71 1015.6
20260903143155 27 56 0.0 0.0 0.00 0.00 0.00 70 1015.6
20260903143030 27 56 0.0 3.2 0.00 0.00 0.00 70 1015.6
20260903142932 27 55 0.0 3.2 0.00 0.00 0.00 71 1015.6
20260903142831 27 56 0.0 3.2 0.00 0.00 0.00 70 1015.6
20260903142729 27 56 0.0 3.2 0.00 0.00 0.00 70 1015.6
20260903142627 27 55 0.0 3.2 0.00 0.00 0.00 70 1015.6
20260903142525 27 56 0.0 3.2 0.00 0.00 0.00 69 1015.6
20260903142443 27 56 0.0 4.8 0.00 0.00 0.00 69 1015.6
20260903142342 27 56 0.0 4.8 0.00 0.00 0.00 69 1015.6
20260903142224 27 56 1.6 4.8 0.00 0.00 0.00 69 1015.6
20260903142143 27 55 1.6 4.8 0.00 0.00 0.00 69 1015.6
20260903142042 27 55 0.0 4.8 0.00 0.00 0.00 69 1015.6
20260903141940 27 54 1.6 4.8 0.00 0.00 0.00 69 1015.6
20260903141838 27 56 1.6 4.8 0.00 0.00 0.00 71 1015.6
20260903141757 27 58 1.6 4.8 0.00 0.00 0.00 71 1015.6
20260903141704 27 56 3.2 4.8 0.00 0.00 0.00 71 1015.6
20260903141525 27 54 0.0 3.2 0.00 0.00 0.00 70 1015.6
20260903141425 27 56 0.0 3.2 0.00 0.00 0.00 70 1015.6
20260903141343 27 56 0.0 3.2 0.00 0.00 0.00 70 1015.6
20260903141240 27 56 0.0 3.2 0.00 0.00 0.00 70 1015.6
20260903141200 27 56 1.6 3.2 0.00 0.00 0.00 70 1015.6
20260903141037 27 55 1.6 3.2 0.00 0.00 0.00 71 1015.6
20260903140934 27 56 1.6 3.2 0.00 0.00 0.00 71 1015.6
20260903140833 27 55 0.0 1.6 0.00 0.00 0.00 71 1015.6
20260903140735 27 54 0.0 1.6 0.00 0.00 0.00 71 1015.6
20260903140653 27 56 0.0 1.6 0.00 0.00 0.00 71 1015.6
20260903140530 27 56 0.0 3.2 0.00 0.00 0.00 71 1015.6
20260903140429 27 56 0.0 3.2 0.00 0.00 0.00 71 1015.6
20260903140327 27 56 0.0 3.2 0.00 0.00 0.00 71 1015.6
20260903140225 27 56 0.0 4.8 0.00 0.00 0.00 70 1015.6
20260903140156 27 54 0.0 4.8 0.00 0.00 0.00 70 1015.6
20260903140031 27 55 0.0 4.8 0.00 0.00 0.00 68 1015.6
20260903135934 27 54 0.0 4.8 0.00 0.00 0.00 69 1015.6
20260903135833 27 56 0.0 4.8 0.00 0.00 0.00 69 1015.6
20260903135732 27 55 1.6 4.8 0.00 0.00 0.00 69 1015.6
20260903135630 27 55 1.6 4.8 0.00 0.00 0.00 70 1015.6
20260903135529 27 54 1.6 4.8 0.00 0.00 0.00 69 1015.6
20260903135427 27 56 1.6 4.8 0.00 0.00 0.00 68 1015.6
20260903135327 27 56 0.0 3.2 0.00 0.00 0.00 68 1015.6
20260903135230 27 56 1.6 3.2 0.00 0.00 0.00 68 1015.6
20260903135128 27 55 1.6 3.2 0.00 0.00 0.00 69 1015.6
20260903135027 27 55 0.0 3.2 0.00 0.00 0.00 69 1015.6
20260903134945 27 56 0.0 3.2 0.00 0.00 0.00 69 1015.6
20260903134903 26 56 0.0 3.2 0.00 0.00 0.00 68 1015.6
20260903134740 26 56 0.0 3.2 0.00 0.00 0.00 69 1015.6
20260903134648 26 56 0.0 3.2 0.00 0.00 0.00 69 1015.6
20260903134525 26 56 0.0 3.2 0.00 0.00 0.00 69 1015.6
20260903134448 26 56 1.6 3.2 0.00 0.00 0.00 69 1015.6
20260903134325 26 55 0.0 1.6 0.00 0.00 0.00 69 1015.6
20260903134224 26 56 0.0 0.0 0.00 0.00 0.00 69 1015.4
20260903134143 26 56 0.0 0.0 0.00 0.00 0.00 70 1015.4
20260903134101 26 56 0.0 0.0 0.00 0.00 0.00 70 1015.4
20260903133957 26 56 0.0 0.0 0.00 0.00 0.00 70 1015.4
20260903133837 26 56 0.0 3.2 0.00 0.00 0.00 70 1015.4
20260903133754 26 51 0.0 3.2 0.00 0.00 0.00 70 1015.4
20260903133631 26 56 0.0 3.2 0.00 0.00 0.00 70 1015.4
20260903133535 26 56 0.0 3.2 0.00 0.00 0.00 71 1015.4
20260903133453 26 55 0.0 3.2 0.00 0.00 0.00 70 1015.4
20260903133330 26 56 0.0 3.2 0.00 0.00 0.00 70 1015.4
20260903133249 26 56 0.0 3.2 0.00 0.00 0.00 70 1015.4
20260903133221 26 55 0.0 3.2 0.00 0.00 0.00 70 1015.4
20260903133036 26 56 0.0 3.2 0.00 0.00 0.00 70 1015.4
20260903132937 26 56 0.0 3.2 0.00 0.00 0.00 70 1015.4
20260903132836 26 52 0.0 1.6 0.00 0.00 0.00 70 1015.4
20260903132740 26 56 0.0 1.6 0.00 0.00 0.00 70 1015.6
20260903132638 26 55 0.0 1.6 0.00 0.00 0.00 71 1015.6
20260903132537 26 55 0.0 1.6 0.00 0.00 0.00 71 1015.6
20260903132500 26 56 0.0 1.6 0.00 0.00 0.00 71 1015.6
20260903132337 26 55 0.0 1.6 0.00 0.00 0.00 71 1015.6
20260903132236 26 56 0.0 1.6 0.00 0.00 0.00 71 1015.6
20260903132155 26 56 0.0 1.6 0.00 0.00 0.00 71 1015.6
20260903132052 26 54 0.0 1.6 0.00 0.00 0.00 71 1015.6
20260903131935 26 55 0.0 1.6 0.00 0.00 0.00 71 1015.6
20260903131837 26 55 1.6 1.6 0.00 0.00 0.00 70 1015.6
20260903131756 26 56 0.0 1.6 0.00 0.00 0.00 71 1015.6
20260903131726 26 56 0.0 0.0 0.00 0.00 0.00 71 1015.6
20260903131543 26 56 0.0 0.0 0.00 0.00 0.00 71 1015.6
20260903131442 26 55 0.0 0.0 0.00 0.00 0.00 71 1015.6
20260903131340 26 56 0.0 0.0 0.00 0.00 0.00 71 1015.6
20260903131225 26 56 0.0 0.0 0.00 0.00 0.00 72 1015.6
20260903131123 26 55 0.0 0.0 0.00 0.00 0.00 72 1015.6
20260903131043 26 56 0.0 0.0 0.00 0.00 0.00 72 1015.6
20260903130941 26 54 0.0 0.0 0.00 0.00 0.00 73 1015.6
20260903130840 26 55 0.0 0.0 0.00 0.00 0.00 74 1015.6
20260903130737 26 56 0.0 0.0 0.00 0.00 0.00 75 1015.6
20260903130636 26 56 0.0 0.0 0.00 0.00 0.00 75 1015.6
20260903130539 26 56 0.0 0.0 0.00 0.00 0.00 75 1015.6
20260903130437 26 56 0.0 0.0 0.00 0.00 0.00 75 1015.6
20260903130356 25 56 0.0 0.0 0.00 0.00 0.00 75 1015.6
20260903130253 25 56 0.0 0.0 0.00 0.00 0.00 75 1015.6
20260903130202 25 56 0.0 0.0 0.00 0.00 0.00 75 1015.6
20260903130100 25 56 0.0 0.0 0.00 0.00 0.00 75 1015.6
20260903125937 25 56 0.0 0.0 0.00 0.00 0.00 75 1015.6
20260903125835 25 55 0.0 0.0 0.00 0.00 0.00 75 1015.6
20260903125734 25 56 0.0 0.0 0.00 0.00 0.00 75 1015.7
20260903125636 25 56 0.0 0.0 0.00 0.00 0.00 75 1015.7
20260903125534 25 56 0.0 0.0 0.00 0.00 0.00 75 1015.7
20260903125433 25 56 0.0 0.0 0.00 0.00 0.00 75 1015.7
20260903125332 25 55 0.0 0.0 0.00 0.00 0.00 75 1015.7
20260903125230 25 56 0.0 0.0 0.00 0.00 0.00 75 1015.7
20260903125129 25 55 0.0 0.0 0.00 0.00 0.00 75 1015.7
20260903125031 25 56 0.0 0.0 0.00 0.00 0.00 75 1015.7
20260903124929 25 56 0.0 1.6 0.00 0.00 0.00 75 1015.7
20260903124828 25 52 0.0 1.6 0.00 0.00 0.00 75 1015.7
20260903124726 25 56 0.0 1.6 0.00 0.00 0.00 75 1015.7
20260903124655 25 56 0.0 1.6 0.00 0.00 0.00 75 1015.7
20260903124533 25 58 0.0 1.6 0.00 0.00 0.00 75 1015.7
20260903124432 25 58 0.0 1.6 0.00 0.00 0.00 75 1015.7
20260903124335 25 58 0.0 1.6 0.00 0.00 0.00 75 1015.7
20260903124233 25 56 0.0 1.6 0.00 0.00 0.00 75 1015.6
20260903124131 25 55 0.0 1.6 0.00 0.00 0.00 75 1015.6
20260903124029 25 54 1.6 1.6 0.00 0.00 0.00 75 1015.6
20260903123928 25 55 1.6 1.6 0.00 0.00 0.00 75 1015.6
20260903123832 25 58 1.6 1.6 0.00 0.00 0.00 75 1015.6
20260903123731 25 56 0.0 0.0 0.00 0.00 0.00 75 1015.6
20260903123654 25 56 0.0 0.0 0.00 0.00 0.00 75 1015.6
20260903123552 25 56 0.0 0.0 0.00 0.00 0.00 75 1015.6
20260903123451 25 56 0.0 0.0 0.00 0.00 0.00 74 1015.6
20260903123328 25 56 0.0 0.0 0.00 0.00 0.00 74 1015.6
20260903123237 25 56 0.0 0.0 0.00 0.00 0.00 74 1015.6
20260903123148 25 56 0.0 1.6 0.00 0.00 0.00 74 1015.6
20260903123045 25 56 0.0 1.6 0.00 0.00 0.00 74 1015.6
20260903122942 25 55 0.0 3.2 0.00 0.00 0.00 74 1015.6
20260903122900 25 56 0.0 3.2 0.00 0.00 0.00 74 1015.6
20260903122737 25 55 0.0 3.2 0.00 0.00 0.00 74 1015.5
20260903122640 25 56 0.0 3.2 0.00 0.00 0.00 74 1015.5
20260903122559 25 55 0.0 3.2 0.00 0.00 0.00 74 1015.5
20260903122435 25 56 0.0 3.2 0.00 0.00 0.00 74 1015.5
20260903122333 25 54 0.0 3.2 0.00 0.00 0.00 74 1015.5
20260903122231 25 56 1.6 3.2 0.00 0.00 0.00 74 1015.5
20260903122128 25 56 1.6 3.2 0.00 0.00 0.00 74 1015.5
20260903122028 25 56 1.6 3.2 0.00 0.00 0.00 74 1015.5
20260903121930 25 56 1.6 3.2 0.00 0.00 0.00 74 1015.5
20260903121828 25 58 1.6 3.2 0.00 0.00 0.00 74 1015.5
20260903121737 25 56 1.6 3.2 0.00 0.00 0.00 74 1015.5
20260903121646 25 58 3.2 3.2 0.00 0.00 0.00 73 1015.5
20260903121524 25 56 1.6 3.2 0.00 0.00 0.00 73 1015.5
20260903121443 25 56 3.2 3.2 0.00 0.00 0.00 73 1015.5
20260903121341 25 56 1.6 3.2 0.00 0.00 0.00 73 1015.5
20260903121222 25 56 1.6 3.2 0.00 0.00 0.00 73 1015.3
20260903121125 25 56 1.6 3.2 0.00 0.00 0.00 73 1015.3
20260903121027 25 56 1.6 3.2 0.00 0.00 0.00 72 1015.3
20260903120926 25 56 3.2 3.2 0.00 0.00 0.00 72 1015.3
20260903120825 25 55 3.2 3.2 0.00 0.00 0.00 72 1015.3
20260903120743 25 56 1.6 3.2 0.00 0.00 0.00 73 1015.3
20260903120625 25 56 3.2 4.8 0.00 0.00 0.00 73 1015.3
20260903120543 25 54 3.2 4.8 0.00 0.00 0.00 73 1015.3
20260903120501 25 56 1.6 4.8 0.00 0.00 0.00 73 1015.3
20260903120339 25 55 1.6 4.8 0.00 0.00 0.00 72 1015.3
20260903120238 25 56 1.6 4.8 0.00 0.00 0.00 72 1015.3
20260903120208 25 54 1.6 4.8 0.00 0.00 0.00 73 1015.3
20260903120104 25 56 1.6 4.8 0.00 0.00 0.00 73 1015.3
20260903115942 25 55 3.2 4.8 0.00 0.00 0.00 73 1015.3
20260903115824 25 56 3.2 4.8 0.00 0.00 0.00 73 1015.3
20260903115743 25 56 3.2 4.8 0.00 0.00 0.00 73 1015.3
20260903115703 25 58 3.2 4.8 0.00 0.00 0.00 73 1015.3
20260903115600 25 54 3.2 4.8 0.00 0.00 0.00 73 1015.3
20260903115437 25 56 1.6 4.8 0.00 0.00 0.00 73 1015.3
20260903115335 25 56 3.2 4.8 0.00 0.00 0.00 73 1015.3
20260903115233 25 58 3.2 4.8 0.00 0.00 0.00 73 1015.3
20260903115132 25 56 3.2 4.8 0.00 0.00 0.00 73 1015.3
20260903115033 25 58 3.2 4.8 0.00 0.00 0.00 72 1015.3
20260903114933 25 56 3.2 4.8 0.00 0.00 0.00 72 1015.3
20260903114833 25 56 3.2 4.8 0.00 0.00 0.00 72 1015.3
20260903114750 25 56 1.6 4.8 0.00 0.00 0.00 72 1015.3
20260903114721 25 56 1.6 4.8 0.00 0.00 0.00 71 1015.3
20260903114538 25 56 3.2 4.8 0.00 0.00 0.00 71 1015.3
20260903114437 25 56 3.2 4.8 0.00 0.00 0.00 71 1015.3
20260903114335 25 55 3.2 4.8 0.00 0.00 0.00 71 1015.3
20260903114236 25 54 3.2 4.8 0.00 0.00 0.00 71 1015.2
20260903114135 25 55 3.2 4.8 0.00 0.00 0.00 71 1015.2
20260903114033 25 56 1.6 4.8 0.00 0.00 0.00 71 1015.2
20260903113934 25 56 1.6 4.8 0.00 0.00 0.00 71 1015.2
20260903113832 25 58 1.6 4.8 0.00 0.00 0.00 71 1015.2
20260903113731 25 54 3.2 4.8 0.00 0.00 0.00 71 1015.2
20260903113630 25 56 1.6 4.8 0.00 0.00 0.00 71 1015.2
20260903113532 25 56 1.6 4.8 0.00 0.00 0.00 71 1015.2
20260903113432 25 54 3.2 4.8 0.00 0.00 0.00 71 1015.2
20260903113330 25 56 3.2 4.8 0.00 0.00 0.00 72 1015.2
20260903113226 25 56 3.2 4.8 0.00 0.00 0.00 71 1015.2
20260903113157 25 55 3.2 4.8 0.00 0.00 0.00 71 1015.2
20260903113037 25 56 4.8 4.8 0.00 0.00 0.00 72 1015.2
20260903112936 25 56 4.8 4.8 0.00 0.00 0.00 71 1015.2
20260903112839 25 55 4.8 4.8 0.00 0.00 0.00 71 1015.2
20260903112738 25 56 4.8 4.8 0.00 0.00 0.00 71 1015.1
20260903112657 25 55 4.8 4.8 0.00 0.00 0.00 71 1015.1
20260903112534 25 56 4.8 4.8 0.00 0.00 0.00 71 1015.1
20260903112432 25 56 3.2 4.8 0.00 0.00 0.00 71 1015.1
20260903112350 25 56 3.2 4.8 0.00 0.00 0.00 71 1015.1
20260903112227 25 56 3.2 4.8 0.00 0.00 0.00 71 1015.1
20260903112125 25 58 1.6 4.8 0.00 0.00 0.00 71 1015.1
20260903112028 25 54 3.2 4.8 0.00 0.00 0.00 72 1015.1
20260903111926 25 55 1.6 4.8 0.00 0.00 0.00 72 1015.1
20260903111825 25 55 1.6 4.8 0.00 0.00 0.00 72 1015.1
20260903111735 25 51 1.6 4.8 0.00 0.00 0.00 72 1015.1
20260903111645 25 52 1.6 4.8 0.00 0.00 0.00 73 1015.1
20260903111524 25 56 3.2 4.8 0.00 0.00 0.00 72 1015.1
20260903111443 25 56 3.2 4.8 0.00 0.00 0.00 72 1015.1
20260903111326 25 55 3.2 4.8 0.00 0.00 0.00 72 1015.1
20260903111225 25 54 3.2 4.8 0.00 0.00 0.00 72 1014.8
20260903111143 25 55 3.2 4.8 0.00 0.00 0.00 72 1014.8
20260903111042 25 56 3.2 4.8 0.00 0.00 0.00 72 1014.8
20260903110940 25 55 3.2 8.0 0.00 0.00 0.00 72 1014.8
20260903110838 25 55 3.2 8.0 0.00 0.00 0.00 72 1014.8
20260903110734 25 56 3.2 8.0 0.00 0.00 0.00 73 1014.8
20260903110633 25 56 3.2 8.0 0.00 0.00 0.00 73 1014.8
20260903110535 25 56 4.8 8.0 0.00 0.00 0.00 73 1014.8
20260903110433 25 54 3.2 8.0 0.00 0.00 0.00 72 1014.8
20260903110331 25 58 3.2 8.0 0.00 0.00 0.00 72 1014.8
20260903110229 25 58 3.2 8.0 0.00 0.00 0.00 72 1014.8
20260903110200 25 56 4.8 8.0 0.00 0.00 0.00 72 1014.8
20260903110037 25 58 4.8 8.0 0.00 0.00 0.00 72 1014.8
20260903105935 25 56 4.8 8.0 0.00 0.00 0.00 72 1014.8
20260903105837 25 56 4.8 8.0 0.00 0.00 0.00 72 1014.8
20260903105736 25 56 4.8 8.0 0.00 0.00 0.00 73 1014.7
20260903105633 25 56 4.8 8.0 0.00 0.00 0.00 73 1014.7
20260903105552 25 56 4.8 8.0 0.00 0.00 0.00 73 1014.7
20260903105429 25 56 4.8 8.0 0.00 0.00 0.00 72 1014.7
20260903105327 25 56 4.8 8.0 0.00 0.00 0.00 73 1014.7
20260903105226 25 56 4.8 8.0 0.00 0.00 0.00 73 1014.7
20260903105148 25 56 6.4 8.0 0.00 0.00 0.00 73 1014.7
20260903105045 25 58 4.8 8.0 0.00 0.00 0.00 73 1014.7
20260903104941 25 56 4.8 9.7 0.00 0.00 0.00 73 1014.7
20260903104901 25 56 4.8 9.7 0.00 0.00 0.00 73 1014.7
20260903104819 25 56 4.8 9.7 0.00 0.00 0.00 73 1014.7
20260903104704 25 58 6.4 9.7 0.00 0.00 0.00 73 1014.7
20260903104542 25 54 6.4 9.7 0.00 0.00 0.00 73 1014.7
20260903104440 25 55 6.4 9.7 0.00 0.00 0.00 73 1014.7
20260903104338 25 58 6.4 9.7 0.00 0.00 0.00 73 1014.7
20260903104256 25 56 6.4 9.7 0.00 0.00 0.00 74 1014.6
20260903104135 25 54 6.4 9.7 0.00 0.00 0.00 74 1014.6
20260903104034 25 55 4.8 9.7 0.00 0.00 0.00 74 1014.6
20260903103932 25 56 8.0 9.7 0.00 0.00 0.00 74 1014.6
20260903103830 25 56 6.4 9.7 0.00 0.00 0.00 74 1014.6
20260903103752 25 56 6.4 9.7 0.00 0.00 0.00 74 1014.6
20260903103628 25 56 8.0 9.7 0.00 0.00 0.00 75 1014.6
20260903103527 25 55 6.4 9.7 0.00 0.00 0.00 75 1014.6
20260903103430 25 56 6.4 9.7 0.00 0.00 0.00 75 1014.6
20260903103331 25 55 6.4 9.7 0.00 0.00 0.00 75 1014.6
20260903103240 25 56 4.8 9.7 0.00 0.00 0.00 75 1014.6
20260903103150 25 56 4.8 9.7 0.00 0.00 0.00 75 1014.6
20260903103027 25 56 6.4 9.7 0.00 0.00 0.00 75 1014.6
20260903102924 25 56 6.4 9.7 0.00 0.00 0.00 75 1014.6
20260903102843 25 56 6.4 9.7 0.00 0.00 0.00 75 1014.6
20260903102725 25 56 6.4 9.7 0.00 0.00 0.00 75 1014.5
20260903102642 25 51 6.4 9.7 0.00 0.00 0.00 75 1014.5
20260903102541 25 56 8.0 9.7 0.00 0.00 0.00 75 1014.5
20260903102440 25 56 8.0 9.7 0.00 0.00 0.00 75 1014.5
20260903102339 25 56 8.0 9.7 0.00 0.00 0.00 75 1014.5
20260903102237 25 54 8.0 9.7 0.00 0.00 0.00 75 1014.5
20260903102135 25 56 8.0 9.7 0.00 0.00 0.00 75 1014.5
20260903102037 25 56 8.0 9.7 0.00 0.00 0.00 75 1014.5
20260903101935 25 56 8.0 9.7 0.00 0.00 0.00 75 1014.5
20260903101833 25 55 8.0 9.7 0.00 0.00 0.00 75 1014.5
20260903101742 25 55 8.0 9.7 0.00 0.00 0.00 75 1014.5
20260903101651 25 55 8.0 9.7 0.00 0.00 0.00 75 1014.5
20260903101529 25 52 8.0 9.7 0.00 0.00 0.00 74 1014.5
20260903101427 25 54 8.0 9.7 0.00 0.00 0.00 74 1014.5
20260903101329 25 55 6.4 9.7 0.00 0.00 0.00 74 1014.5
20260903101247 25 45 8.0 9.7 0.00 0.00 0.00 74 1014.5
20260903101205 25 48 8.0 9.7 0.00 0.00 0.00 74 1014.5
20260903101103 25 44 6.4 9.7 0.00 0.00 0.00 74 1014.5
20260903100940 25 44 8.0 9.7 0.00 0.00 0.00 74 1014.5
20260903100900 25 45 6.4 9.7 0.00 0.00 0.00 74 1014.5
20260903100736 25 45 6.4 9.7 0.00 0.00 0.00 74 1014.5
20260903100634 25 42 4.8 9.7 0.00 0.00 0.00 73 1014.5
20260903100531 25 44 6.4 9.7 0.00 0.00 0.00 73 1014.5
20260903100433 25 41 6.4 9.7 0.00 0.00 0.00 73 1014.5
20260903100351 25 44 6.4 9.7 0.00 0.00 0.00 72 1014.5
20260903100238 25 44 6.4 9.7 0.00 0.00 0.00 72 1014.5
20260903100147 25 44 8.0 9.7 0.00 0.00 0.00 72 1014.5
20260903100027 25 45 8.0 9.7 0.00 0.00 0.00 72 1014.5
20260903095947 25 44 6.4 9.7 0.00 0.00 0.00 72 1014.5
20260903095843 25 44 6.4 9.7 0.00 0.00 0.00 72 1014.5
20260903095742 25 41 6.4 9.7 0.00 0.00 0.00 72 1015.3
20260903095624 25 42 6.4 9.7 0.00 0.00 0.00 72 1015.3
20260903095544 25 42 6.4 9.7 0.00 0.00 0.00 72 1015.3
20260903095442 25 42 6.4 9.7 0.00 0.00 0.00 72 1015.3
20260903095341 25 42 8.0 9.7 0.00 0.00 0.00 72 1015.3
20260903095240 25 42 6.4 9.7 0.00 0.00 0.00 72 1015.3
20260903095139 25 41 6.4 9.7 0.00 0.00 0.00 73 1015.3
20260903095057 25 41 6.4 9.7 0.00 0.00 0.00 72 1015.3
20260903094934 25 41 6.4 9.7 0.00 0.00 0.00 72 1015.3
20260903094838 25 41 8.0 9.7 0.00 0.00 0.00 72 1015.3
20260903094735 25 38 8.0 9.7 0.00 0.00 0.00 72 1015.3
20260903094704 25 41 6.4 9.7 0.00 0.00 0.00 72 1015.3
20260903094541 25 42 8.0 9.7 0.00 0.00 0.00 72 1015.3
20260903094441 25 41 8.0 9.7 0.00 0.00 0.00 72 1015.3
20260903094340 25 40 8.0 9.7 0.00 0.00 0.00 72 1015.3
20260903094258 25 41 8.0 9.7 0.00 0.00 0.00 72 1015.3
20260903094139 25 25 8.0 9.7 0.00 0.00 0.00 71 1015.3
20260903094037 25 24 8.0 9.7 0.00 0.00 0.00 71 1015.3
20260903093935 25 21 6.4 8.0 0.00 0.00 0.00 71 1015.3
20260903093853 25 23 6.4 8.0 0.00 0.00 0.00 71 1015.3
20260903093732 25 23 6.4 8.0 0.00 0.00 0.00 71 1015.3
20260903093652 25 21 4.8 8.0 0.00 0.00 0.00 71 1015.3
20260903093549 25 8 6.4 8.0 0.00 0.00 0.00 71 1015.3
20260903093426 25 3 8.0 8.0 0.00 0.00 0.00 71 1015.3
20260903093326 25 3 8.0 8.0 0.00 0.00 0.00 71 1015.3
20260903093300 25 4 8.0 8.0 0.00 0.00 0.00 71 1015.3
20260903093148 25 4 4.8 8.0 0.00 0.00 0.00 71 1015.3
20260903093025 25 360 4.8 8.0 0.00 0.00 0.00 71 1015.3
20260903092945 25 4 6.4 8.0 0.00 0.00 0.00 71 1015.3
20260903092844 25 4 6.4 8.0 0.00 0.00 0.00 71 1015.3
20260903092742 25 4 6.4 8.0 0.00 0.00 0.00 70 1015.3
20260903092640 25 4 6.4 8.0 0.00 0.00 0.00 70 1015.3
20260903092537 25 6 6.4 8.0 0.00 0.00 0.00 70 1015.3
20260903092435 25 4 4.8 8.0 0.00 0.00 0.00 70 1015.3
20260903092340 25 328 4.8 8.0 0.00 0.00 0.00 69 1015.3
20260903092259 25 326 6.4 8.0 0.00 0.00 0.00 69 1015.3
20260903092135 25 323 6.4 8.0 0.00 0.00 0.00 69 1015.3
20260903092033 25 328 4.8 8.0 0.00 0.00 0.00 69 1015.3
20260903091930 25 328 4.8 8.0 0.00 0.00 0.00 69 1015.3
20260903091829 25 316 4.8 8.0 0.00 0.00 0.00 69 1015.3
20260903091737 25 326 6.4 8.0 0.00 0.00 0.00 69 1015.3
20260903091647 25 329 6.4 8.0 0.00 0.00 0.00 70 1015.3
20260903091530 25 328 6.4 8.0 0.00 0.00 0.00 70 1015.3
20260903091429 25 325 4.8 8.0 0.00 0.00 0.00 70 1015.3
20260903091328 25 326 6.4 8.0 0.00 0.00 0.00 70 1015.3
20260903091225 25 328 4.8 8.0 0.00 0.00 0.00 70 1014.4
20260903091142 25 328 3.2 8.0 0.00 0.00 0.00 69 1014.4
20260903091101 25 328 4.8 8.0 0.00 0.00 0.00 69 1014.4
20260903090938 25 326 4.8 8.0 0.00 0.00 0.00 70 1014.4
20260903090836 25 326 4.8 8.0 0.00 0.00 0.00 70 1014.4
20260903090739 25 328 4.8 8.0 0.00 0.00 0.00 69 1014.4
20260903090637 25 330 3.2 6.4 0.00 0.00 0.00 70 1014.4
20260903090534 25 328 4.8 6.4 0.00 0.00 0.00 69 1014.4
20260903090433 25 326 4.8 6.4 0.00 0.00 0.00 69 1014.4
20260903090352 25 328 4.8 6.4 0.00 0.00 0.00 69 1014.4
20260903090239 25 325 4.8 6.4 0.00 0.00 0.00 68 1014.4
20260903090148 25 329 4.8 6.4 0.00 0.00 0.00 68 1014.4
20260903090025 25 325 4.8 8.0 0.00 0.00 0.00 68 1014.4
20260903085950 25 328 4.8 8.0 0.00 0.00 0.00 67 1014.4
20260903085848 25 326 4.8 8.0 0.00 0.00 0.00 67 1014.4
20260903085725 25 328 4.8 8.0 0.00 0.00 0.00 67 1014.3
20260903085643 25 326 4.8 8.0 0.00 0.00 0.00 67 1014.3
20260903085542 25 328 4.8 8.0 0.00 0.00 0.00 67 1014.3
20260903085500 25 326 4.8 8.0 0.00 0.00 0.00 67 1014.3
20260903085338 25 304 4.8 8.0 0.00 0.00 0.00 67 1014.3
20260903085237 25 328 4.8 8.0 0.00 0.00 0.00 67 1014.3
20260903085139 25 360 4.8 4.8 0.00 0.00 0.00 67 1014.3
20260903085058 25 360 4.8 4.8 0.00 0.00 0.00 67 1014.3
20260903084936 25 360 4.8 4.8 0.00 0.00 0.00 67 1014.3
20260903084833 25 360 4.8 4.8 0.00 0.00 0.00 67 1014.3
20260903084803 25 360 4.8 4.8 0.00 0.00 0.00 67 1014.3
20260903084651 25 359 4.8 4.8 0.00 0.00 0.00 67 1014.3
20260903084529 25 357 4.8 4.8 0.00 0.00 0.00 67 1014.3
20260903084448 25 360 4.8 4.8 0.00 0.00 0.00 67 1014.3
20260903084326 25 359 4.8 4.8 0.00 0.00 0.00 67 1014.3
20260903084228 25 360 4.8 4.8 0.00 0.00 0.00 67 1015.1
20260903084127 25 360 4.8 4.8 0.00 0.00 0.00 67 1015.1
20260903084024 25 360 4.8 4.8 0.00 0.00 0.00 67 1015.1
20260903083924 25 360 4.8 4.8 0.00 0.00 0.00 67 1015.1
20260903083841 25 360 4.8 4.8 0.00 0.00 0.00 67 1015.1
20260903083739 25 360 4.8 4.8 0.00 0.00 0.00 67 1015.1
20260903083637 26 360 4.8 4.8 0.00 0.00 0.00 67 1015.1
20260903083540 26 356 4.8 4.8 0.00 0.00 0.00 67 1015.1
20260903083438 26 360 4.8 4.8 0.00 0.00 0.00 67 1015.1
20260903083337 26 359 3.2 4.8 0.00 0.00 0.00 68 1015.1
20260903083235 26 356 0.0 0.0 0.00 0.00 0.00 68 1015.1
20260903083205 26 360 0.0 0.0 0.00 0.00 0.00 67 1015.1
20260903083042 26 357 0.0 0.0 0.00 0.00 0.00 67 1015.1
20260903082925 26 360 0.0 0.0 0.00 0.00 0.00 68 1015.1
20260903082842 26 360 0.0 0.0 0.00 0.00 0.00 68 1015.1
20260903082740 26 360 0.0 0.0 0.00 0.00 0.00 68 1014.4
20260903082639 26 360 0.0 0.0 0.00 0.00 0.00 68 1014.4
20260903082537 26 360 0.0 0.0 0.00 0.00 0.00 68 1014.4
20260903082434 26 360 0.0 0.0 0.00 0.00 0.00 68 1014.4
20260903082353 26 360 0.0 0.0 0.00 0.00 0.00 68 1014.4
20260903082229 26 360 0.0 0.0 0.00 0.00 0.00 68 1014.4
20260903082132 26 359 0.0 0.0 0.00 0.00 0.00 68 1014.4
20260903082030 26 360 0.0 0.0 0.00 0.00 0.00 68 1014.4
20260903081926 26 360 0.0 0.0 0.00 0.00 0.00 68 1014.4
20260903081825 26 360 0.0 0.0 0.00 0.00 0.00 68 1014.4
20260903081724 26 360 0.0 0.0 0.00 0.00 0.00 68 1014.4
20260903081654 26 360 0.0 0.0 0.00 0.00 0.00 68 1014.4
20260903081532 26 360 0.0 0.0 0.00 0.00 0.00 68 1014.4
20260903081428 26 360 0.0 0.0 0.00 0.00 0.00 68 1014.4
20260903081331 25 354 0.0 0.0 0.00 0.00 0.00 68 1014.4
20260903081251 25 360 0.0 0.0 0.00 0.00 0.00 68 1014.3
20260903081148 25 360 0.0 0.0 0.00 0.00 0.00 68 1014.3
20260903081107 25 360 0.0 0.0 0.00 0.00 0.00 68 1014.3
20260903080944 25 357 0.0 0.0 0.00 0.00 0.00 68 1014.3
20260903080903 25 360 0.0 0.0 0.00 0.00 0.00 68 1014.3
20260903080740 25 359 0.0 0.0 0.00 0.00 0.00 68 1014.3
20260903080638 25 360 0.0 0.0 0.00 0.00 0.00 68 1014.3
20260903080536 25 360 0.0 0.0 0.00 0.00 0.00 68 1014.3
20260903080438 25 357 0.0 0.0 0.00 0.00 0.00 68 1014.3
20260903080336 25 360 0.0 0.0 0.00 0.00 0.00 68 1014.3
20260903080225 25 360 0.0 0.0 0.00 0.00 0.00 68 1014.3
20260903075937 25 360 0.0 0.0 0.00 0.00 0.00 68 1014.3
20260903075835 25 360 0.0 0.0 0.00 0.00 0.00 68 1014.3
20260903075752 25 360 0.0 0.0 0.00 0.00 0.00 68 1014.4
20260903075630 25 357 0.0 0.0 0.00 0.00 0.00 68 1014.4
20260903075533 25 360 0.0 0.0 0.00 0.00 0.00 68 1014.4
20260903075431 25 360 0.0 0.0 0.00 0.00 0.00 68 1014.4
20260903075350 25 360 0.0 0.0 0.00 0.00 0.00 68 1014.4
20260903075228 25 360 0.0 0.0 0.00 0.00 0.00 68 1014.4
20260903075127 25 360 0.0 0.0 0.00 0.00 0.00 68 1014.4
20260903075046 25 360 0.0 0.0 0.00 0.00 0.00 68 1014.4
20260903075004 25 360 0.0 0.0 0.00 0.00 0.00 68 1014.4
20260903074841 26 360 0.0 0.0 0.00 0.00 0.00 68 1014.4
20260903074724 26 360 0.0 0.0 0.00 0.00 0.00 68 1014.4
20260903074654 25 360 0.0 0.0 0.00 0.00 0.00 68 1014.4
20260903074532 26 360 0.0 0.0 0.00 0.00 0.00 68 1014.4
20260903074430 26 357 0.0 0.0 0.00 0.00 0.00 68 1014.4
20260903074330 26 360 0.0 0.0 0.00 0.00 0.00 68 1014.4
20260903074231 26 360 0.0 0.0 0.00 0.00 0.00 68 1014.4
20260903074127 26 360 0.0 0.0 0.00 0.00 0.00 68 1014.4
20260903074029 26 360 0.0 0.0 0.00 0.00 0.00 68 1014.4
20260903073947 26 360 0.0 0.0 0.00 0.00 0.00 68 1014.4
20260903073846 26 360 0.0 0.0 0.00 0.00 0.00 68 1014.4
20260903073748 26 360 0.0 0.0 0.00 0.00 0.00 68 1014.4
20260903073645 26 360 0.0 0.0 0.00 0.00 0.00 68 1014.4
20260903073603 26 359 0.0 0.0 0.00 0.00 0.00 68 1014.4
20260903073441 26 360 0.0 0.0 0.00 0.00 0.00 68 1014.4
20260903073339 26 360 0.0 0.0 0.00 0.00 0.00 68 1014.4
20260903073258 26 357 0.0 0.0 0.00 0.00 0.00 68 1014.4
20260903073208 26 360 0.0 0.0 0.00 0.00 0.00 68 1014.4
20260903073030 26 360 0.0 0.0 0.00 0.00 0.00 68 1014.4
20260903072929 26 359 0.0 0.0 0.00 0.00 0.00 68 1014.4
20260903072828 26 360 0.0 0.0 0.00 0.00 0.00 68 1014.4
20260903072725 26 360 0.0 0.0 0.00 0.00 0.00 68 1014.4
20260903072643 26 359 0.0 0.0 0.00 0.00 0.00 68 1014.4
20260903072524 26 360 0.0 0.0 0.00 0.00 0.00 68 1014.4
20260903072427 26 360 0.0 0.0 0.00 0.00 0.00 68 1014.4
20260903072325 26 359 0.0 0.0 0.00 0.00 0.00 68 1014.4
20260903072242 26 360 0.0 0.0 0.00 0.00 0.00 68 1014.4
20260903072141 26 360 0.0 0.0 0.00 0.00 0.00 68 1014.4
20260903072042 26 360 0.0 0.0 0.00 0.00 0.00 68 1014.4
20260903072002 26 360 0.0 0.0 0.00 0.00 0.00 68 1014.4
20260903071859 26 360 0.0 0.0 0.00 0.00 0.00 68 1014.4
20260903071704 26 360 0.0 0.0 0.00 0.00 0.00 68 1014.4
20260903071525 26 360 0.0 0.0 0.00 0.00 0.00 68 1014.4
20260903071443 26 360 0.0 0.0 0.00 0.00 0.00 68 1014.4
20260903071341 26 360 0.0 0.0 0.00 0.00 0.00 68 1014.4
20260903071240 26 359 0.0 0.0 0.00 0.00 0.00 68 1014.4
20260903071137 26 360 0.0 0.0 0.00 0.00 0.00 68 1014.4
20260903071035 26 360 0.0 0.0 0.00 0.00 0.00 68 1014.4
20260903070934 26 360 0.0 0.0 0.00 0.00 0.00 68 1014.4
20260903070837 26 360 0.0 0.0 0.00 0.00 0.00 68 1014.4
20260903070736 26 360 0.0 0.0 0.00 0.00 0.00 68 1014.4
20260903070635 26 360 0.0 0.0 0.00 0.00 0.00 69 1014.4
20260903070534 26 359 0.0 0.0 0.00 0.00 0.00 68 1014.4
20260903070453 26 360 0.0 0.0 0.00 0.00 0.00 68 1014.4
20260903070351 26 360 0.0 0.0 0.00 0.00 0.00 68 1014.4
20260903070228 26 360 0.0 0.0 0.00 0.00 0.00 68 1014.4
20260903070200 26 360 0.0 0.0 0.00 0.00 0.00 68 1014.4
20260903070041 26 360 0.0 0.0 0.00 0.00 0.00 68 1014.4
20260903065939 26 360 0.0 0.0 0.00 0.00 0.00 68 1014.4
20260903065837 26 360 0.0 0.0 0.00 0.00 0.00 68 1014.4
20260903065737 26 360 0.0 0.0 0.00 0.00 0.00 68 1015.4
20260903065637 26 360 0.0 0.0 0.00 0.00 0.00 68 1015.4
20260903065535 26 360 0.0 0.0 0.00 0.00 0.00 68 1015.4
20260903065439 26 360 0.0 0.0 0.00 0.00 0.00 68 1015.4
20260903065337 26 360 0.0 0.0 0.00 0.00 0.00 68 1015.4
20260903065236 26 360 0.0 0.0 0.00 0.00 0.00 68 1015.4
20260903065132 26 360 0.0 0.0 0.00 0.00 0.00 68 1015.4
20260903065031 26 360 0.0 0.0 0.00 0.00 0.00 68 1015.4
20260903064950 26 360 0.0 0.0 0.00 0.00 0.00 68 1015.4
20260903064827 26 360 0.0 0.0 0.00 0.00 0.00 68 1015.4
20260903064737 26 360 0.0 0.0 0.00 0.00 0.00 68 1015.4
20260903064649 26 360 0.0 0.0 0.00 0.00 0.00 68 1015.4
20260903064548 26 359 0.0 0.0 0.00 0.00 0.00 68 1015.4
20260903064425 26 359 0.0 0.0 0.00 0.00 0.00 68 1015.4
20260903064325 26 360 0.0 0.0 0.00 0.00 0.00 68 1015.4
20260903064243 26 360 0.0 0.0 0.00 0.00 0.00 68 1015.4
20260903064202 26 360 0.0 0.0 0.00 0.00 0.00 68 1015.4
20260903064040 26 360 0.0 0.0 0.00 0.00 0.00 68 1015.4
20260903063937 26 360 0.0 0.0 0.00 0.00 0.00 68 1015.4
20260903063840 26 359 0.0 0.0 0.00 0.00 0.00 68 1015.4
20260903063739 26 360 0.0 0.0 0.00 0.00 0.00 68 1015.4
20260903063638 26 360 0.0 0.0 0.00 0.00 0.00 68 1015.4
20260903063536 26 360 0.0 0.0 0.00 0.00 0.00 68 1015.4
20260903063434 26 360 0.0 0.0 0.00 0.00 0.00 68 1015.4
20260903063333 26 359 0.0 0.0 0.00 0.00 0.00 68 1015.4
20260903063251 26 357 0.0 0.0 0.00 0.00 0.00 68 1015.4
20260903063221 26 360 0.0 0.0 0.00 0.00 0.00 68 1015.4
20260903063041 26 357 0.0 1.6 0.00 0.00 0.00 68 1015.4
20260903062959 26 360 0.0 1.6 0.00 0.00 0.00 68 1015.4
20260903062835 26 360 0.0 3.2 0.00 0.00 0.00 68 1015.4
20260903062753 26 360 0.0 3.2 0.00 0.00 0.00 68 1015.5
20260903062631 26 360 0.0 3.2 0.00 0.00 0.00 68 1015.5
20260903062530 26 360 0.0 3.2 0.00 0.00 0.00 68 1015.5
20260903062428 26 359 0.0 3.2 0.00 0.00 0.00 68 1015.5
20260903062327 26 360 0.0 3.2 0.00 0.00 0.00 69 1015.5
20260903062230 26 360 1.6 3.2 0.00 0.00 0.00 69 1015.5
20260903062130 26 360 1.6 3.2 0.00 0.00 0.00 68 1015.5
20260903062028 26 360 1.6 3.2 0.00 0.00 0.00 68 1015.5
20260903061928 26 360 1.6 3.2 0.00 0.00 0.00 68 1015.5
20260903061828 26 356 1.6 3.2 0.00 0.00 0.00 68 1015.5
20260903061751 26 359 1.6 3.2 0.00 0.00 0.00 69 1015.5
20260903061700 26 359 1.6 3.2 0.00 0.00 0.00 69 1015.5
20260903061601 26 360 1.6 3.2 0.00 0.00 0.00 69 1015.5
20260903061422 26 360 3.2 3.2 0.00 0.00 0.00 68 1015.5
20260903061343 26 360 1.6 3.2 0.00 0.00 0.00 68 1015.5
20260903061241 26 360 1.6 3.2 0.00 0.00 0.00 68 1015.4
20260903061139 26 360 3.2 3.2 0.00 0.00 0.00 68 1015.4
20260903061038 26 359 3.2 3.2 0.00 0.00 0.00 68 1015.4
20260903060936 26 359 3.2 3.2 0.00 0.00 0.00 68 1015.4
20260903060834 26 360 3.2 3.2 0.00 0.00 0.00 68 1015.4
20260903060738 26 360 3.2 3.2 0.00 0.00 0.00 68 1015.4
20260903060657 26 360 1.6 3.2 0.00 0.00 0.00 68 1015.4
20260903060535 26 357 1.6 3.2 0.00 0.00 0.00 69 1015.4
20260903060433 26 360 1.6 3.2 0.00 0.00 0.00 69 1015.4
20260903060332 26 360 1.6 4.8 0.00 0.00 0.00 69 1015.4
20260903060252 26 360 3.2 4.8 0.00 0.00 0.00 69 1015.4
20260903060221 26 360 1.6 4.8 0.00 0.00 0.00 69 1015.4
20260903060037 26 360 3.2 4.8 0.00 0.00 0.00 69 1015.4
20260903055939 26 360 3.2 4.8 0.00 0.00 0.00 69 1015.4
20260903055838 26 359 3.2 4.8 0.00 0.00 0.00 69 1015.4
20260903055757 26 360 1.6 4.8 0.00 0.00 0.00 69 1015.5
20260903055635 26 359 1.6 4.8 0.00 0.00 0.00 68 1015.5
20260903055534 26 360 3.2 4.8 0.00 0.00 0.00 68 1015.5
20260903055432 26 359 3.2 3.2 0.00 0.00 0.00 68 1015.5
20260903055332 26 360 3.2 3.2 0.00 0.00 0.00 68 1015.5
20260903055234 26 359 3.2 3.2 0.00 0.00 0.00 68 1015.5
20260903055133 26 356 1.6 3.2 0.00 0.00 0.00 68 1015.5
20260903055031 26 360 1.6 4.8 0.00 0.00 0.00 69 1015.5
20260903054930 26 359 3.2 4.8 0.00 0.00 0.00 67 1015.5
20260903054831 26 360 3.2 4.8 0.00 0.00 0.00 67 1015.5
20260903054729 26 359 3.2 4.8 0.00 0.00 0.00 68 1015.5
20260903054700 26 357 3.2 4.8 0.00 0.00 0.00 68 1015.5
20260903054558 26 360 3.2 4.8 0.00 0.00 0.00 68 1015.5
20260903054439 26 360 1.6 4.8 0.00 0.00 0.00 68 1015.5
20260903054338 26 359 1.6 4.8 0.00 0.00 0.00 68 1015.5
20260903054235 26 360 3.2 4.8 0.00 0.00 0.00 68 1015.6
20260903054134 26 360 3.2 4.8 0.00 0.00 0.00 68 1015.6
20260903054034 26 325 3.2 4.8 0.00 0.00 0.00 69 1015.6
20260903053931 26 360 3.2 4.8 0.00 0.00 0.00 68 1015.6
20260903053829 26 6 3.2 4.8 0.00 0.00 0.00 69 1015.6
20260903053732 26 13 3.2 4.8 0.00 0.00 0.00 68 1015.6
20260903053632 26 31 3.2 4.8 0.00 0.00 0.00 68 1015.6
20260903053530 26 31 3.2 4.8 0.00 0.00 0.00 68 1015.6
20260903053428 26 31 3.2 4.8 0.00 0.00 0.00 68 1015.6
20260903053326 26 32 1.6 3.2 0.00 0.00 0.00 69 1015.6
20260903053225 26 34 1.6 3.2 0.00 0.00 0.00 69 1015.6
20260903053155 26 34 1.6 3.2 0.00 0.00 0.00 68 1015.6
20260903053059 26 34 1.6 3.2 0.00 0.00 0.00 67 1015.6
20260903052937 26 32 1.6 3.2 0.00 0.00 0.00 66 1015.6
20260903052834 26 32 1.6 3.2 0.00 0.00 0.00 66 1015.6
20260903052732 26 34 1.6 3.2 0.00 0.00 0.00 66 1015.6
20260903052630 26 32 1.6 4.8 0.00 0.00 0.00 66 1015.6
20260903052531 26 34 1.6 4.8 0.00 0.00 0.00 66 1015.6
20260903052429 26 34 1.6 4.8 0.00 0.00 0.00 66 1015.6
20260903052332 26 32 1.6 4.8 0.00 0.00 0.00 66 1015.6
20260903052231 26 31 3.2 4.8 0.00 0.00 0.00 66 1015.6
20260903052130 26 32 3.2 4.8 0.00 0.00 0.00 67 1015.6
20260903052030 26 34 3.2 4.8 0.00 0.00 0.00 67 1015.6
20260903051928 26 32 3.2 4.8 0.00 0.00 0.00 67 1015.6
20260903051827 26 30 3.2 4.8 0.00 0.00 0.00 67 1015.6
20260903051737 26 34 3.2 4.8 0.00 0.00 0.00 67 1015.6
20260903051650 26 34 4.8 4.8 0.00 0.00 0.00 68 1015.6
20260903051528 26 34 3.2 4.8 0.00 0.00 0.00 68 1015.6
20260903051427 26 34 3.2 4.8 0.00 0.00 0.00 67 1015.6
20260903051325 26 32 4.8 4.8 0.00 0.00 0.00 67 1015.6
20260903051226 26 34 3.2 4.8 0.00 0.00 0.00 67 1014.7
20260903051125 26 34 4.8 4.8 0.00 0.00 0.00 67 1014.7
20260903051044 26 34 3.2 4.8 0.00 0.00 0.00 68 1014.7
20260903050927 26 34 3.2 4.8 0.00 0.00 0.00 68 1014.7
20260903050825 26 35 3.2 4.8 0.00 0.00 0.00 68 1014.7
20260903050724 26 34 3.2 4.8 0.00 0.00 0.00 68 1014.7
20260903050641 26 32 1.6 3.2 0.00 0.00 0.00 68 1014.7
20260903050601 26 34 0.0 3.2 0.00 0.00 0.00 68 1014.7
20260903050438 26 35 1.6 3.2 0.00 0.00 0.00 66 1014.7
20260903050336 26 35 1.6 3.2 0.00 0.00 0.00 65 1014.7
20260903050255 26 34 3.2 3.2 0.00 0.00 0.00 65 1014.7
20260903050207 26 34 1.6 3.2 0.00 0.00 0.00 65 1014.7
20260903050043 26 32 1.6 3.2 0.00 0.00 0.00 65 1014.7
20260903045941 26 34 1.6 4.8 0.00 0.00 0.00 65 1014.7
20260903045859 26 31 0.0 4.8 0.00 0.00 0.00 65 1014.7
20260903045736 26 34 0.0 4.8 0.00 0.00 0.00 65 1015.5
20260903045634 26 34 0.0 4.8 0.00 0.00 0.00 65 1015.5
20260903045533 26 34 0.0 4.8 0.00 0.00 0.00 65 1015.5
20260903045432 26 34 0.0 4.8 0.00 0.00 0.00 65 1015.5
20260903045335 26 34 1.6 4.8 0.00 0.00 0.00 65 1015.5
20260903045235 26 35 1.6 4.8 0.00 0.00 0.00 65 1015.5
20260903045152 26 32 1.6 4.8 0.00 0.00 0.00 65 1015.5
20260903045033 26 34 1.6 4.8 0.00 0.00 0.00 65 1015.5
20260903044932 26 34 0.0 4.8 0.00 0.00 0.00 65 1015.5
20260903044831 26 34 1.6 4.8 0.00 0.00 0.00 66 1015.5
20260903044740 26 34 1.6 4.8 0.00 0.00 0.00 66 1015.5
20260903044648 26 35 0.0 4.8 0.00 0.00 0.00 66 1015.5
20260903044550 26 34 0.0 4.8 0.00 0.00 0.00 66 1015.5
20260903044426 26 34 0.0 4.8 0.00 0.00 0.00 66 1015.5
20260903044346 26 34 0.0 4.8 0.00 0.00 0.00 66 1015.5
20260903044244 26 34 1.6 4.8 0.00 0.00 0.00 66 1014.7
20260903044142 26 34 1.6 4.8 0.00 0.00 0.00 67 1014.7
20260903044040 26 34 3.2 4.8 0.00 0.00 0.00 66 1014.7
20260903043939 26 34 3.2 4.8 0.00 0.00 0.00 65 1014.7
20260903043856 26 34 1.6 1.6 0.00 0.00 0.00 66 1014.7
20260903043738 26 34 0.0 1.6 0.00 0.00 0.00 66 1014.7
20260903043635 26 35 0.0 3.2 0.00 0.00 0.00 65 1014.7
20260903043534 26 34 0.0 3.2 0.00 0.00 0.00 65 1014.7
20260903043453 26 32 0.0 3.2 0.00 0.00 0.00 65 1014.7
20260903043330 26 34 0.0 3.2 0.00 0.00 0.00 65 1014.7
20260903043259 26 32 0.0 3.2 0.00 0.00 0.00 65 1014.7
20260903043147 26 32 0.0 3.2 0.00 0.00 0.00 65 1014.7
20260903043043 26 34 0.0 3.2 0.00 0.00 0.00 65 1014.7
20260903042925 26 34 0.0 3.2 0.00 0.00 0.00 65 1014.7
20260903042824 26 34 1.6 3.2 0.00 0.00 0.00 65 1014.7
20260903042743 26 34 1.6 3.2 0.00 0.00 0.00 65 1014.6
20260903042643 26 31 1.6 3.2 0.00 0.00 0.00 65 1014.6
20260903042541 26 32 1.6 3.2 0.00 0.00 0.00 65 1014.6
20260903042439 26 34 1.6 4.8 0.00 0.00 0.00 65 1014.6
20260903042358 26 34 3.2 4.8 0.00 0.00 0.00 65 1014.6
20260903042236 26 34 1.6 4.8 0.00 0.00 0.00 65 1014.6
20260903042137 26 34 1.6 4.8 0.00 0.00 0.00 65 1014.6
20260903042056 26 34 1.6 4.8 0.00 0.00 0.00 65 1014.6
20260903041953 26 35 3.2 4.8 0.00 0.00 0.00 65 1014.6
20260903041833 26 35 3.2 4.8 0.00 0.00 0.00 65 1014.6
20260903041753 26 34 1.6 4.8 0.00 0.00 0.00 65 1014.6
20260903041701 26 31 1.6 4.8 0.00 0.00 0.00 65 1014.6
20260903041537 26 34 3.2 4.8 0.00 0.00 0.00 65 1014.6
20260903041437 26 32 3.2 3.2 0.00 0.00 0.00 65 1014.6
20260903041340 26 32 3.2 3.2 0.00 0.00 0.00 65 1014.6
20260903041240 26 34 1.6 3.2 0.00 0.00 0.00 65 1014.6
20260903041140 26 34 1.6 3.2 0.00 0.00 0.00 65 1014.6
20260903041040 26 32 1.6 3.2 0.00 0.00 0.00 64 1014.6
20260903040937 26 34 3.2 3.2 0.00 0.00 0.00 64 1014.6
20260903040836 26 34 3.2 3.2 0.00 0.00 0.00 64 1014.6
20260903040755 26 31 1.6 3.2 0.00 0.00 0.00 64 1014.6
20260903040652 26 34 1.6 3.2 0.00 0.00 0.00 64 1014.6
20260903040534 26 34 1.6 3.2 0.00 0.00 0.00 64 1014.6
20260903040432 26 34 1.6 3.2 0.00 0.00 0.00 64 1014.6
20260903040334 26 32 1.6 3.2 0.00 0.00 0.00 64 1014.6
20260903040243 26 34 1.6 3.2 0.00 0.00 0.00 64 1014.6
20260903040152 26 35 1.6 3.2 0.00 0.00 0.00 64 1014.6
20260903040029 27 34 1.6 3.2 0.00 0.00 0.00 64 1014.6
20260903035948 27 32 1.6 3.2 0.00 0.00 0.00 64 1014.6
20260903035905 27 35 1.6 3.2 0.00 0.00 0.00 64 1014.6
20260903035744 27 32 1.6 3.2 0.00 0.00 0.00 64 1015.7
20260903035642 27 34 1.6 3.2 0.00 0.00 0.00 64 1015.7
20260903035601 27 32 1.6 3.2 0.00 0.00 0.00 64 1015.7
20260903035437 27 31 1.6 3.2 0.00 0.00 0.00 64 1015.7
20260903035336 27 35 3.2 3.2 0.00 0.00 0.00 64 1015.7
20260903035234 27 34 1.6 3.2 0.00 0.00 0.00 64 1015.7
20260903035132 27 30 1.6 3.2 0.00 0.00 0.00 64 1015.7
20260903035051 27 32 1.6 3.2 0.00 0.00 0.00 65 1015.7
20260903034949 27 35 1.6 3.2 0.00 0.00 0.00 65 1015.7
20260903034831 27 30 1.6 3.2 0.00 0.00 0.00 65 1015.7
20260903034739 27 34 1.6 3.2 0.00 0.00 0.00 65 1015.7
20260903034648 27 35 1.6 3.2 0.00 0.00 0.00 65 1015.7
20260903034546 27 34 3.2 3.2 0.00 0.00 0.00 65 1015.7
20260903034443 27 34 3.2 3.2 0.00 0.00 0.00 65 1015.7
20260903034342 27 34 1.6 3.2 0.00 0.00 0.00 65 1015.7
20260903034240 27 34 1.6 3.2 0.00 0.00 0.00 65 1014.9
20260903034138 27 35 3.2 3.2 0.00 0.00 0.00 65 1014.9
20260903034042 27 32 3.2 3.2 0.00 0.00 0.00 65 1014.9
20260903033941 27 34 3.2 3.2 0.00 0.00 0.00 65 1014.9
20260903033839 27 31 3.2 3.2 0.00 0.00 0.00 65 1014.9
20260903033757 27 35 1.6 3.2 0.00 0.00 0.00 65 1014.9
20260903033633 27 34 1.6 3.2 0.00 0.00 0.00 65 1014.9
20260903033533 27 34 1.6 3.2 0.00 0.00 0.00 65 1014.9
20260903033452 27 34 3.2 3.2 0.00 0.00 0.00 65 1014.9
20260903033350 27 34 3.2 3.2 0.00 0.00 0.00 64 1014.9
20260903033242 27 31 1.6 3.2 0.00 0.00 0.00 64 1014.9
20260903033152 27 34 1.6 3.2 0.00 0.00 0.00 64 1014.9
20260903033029 27 34 1.6 3.2 0.00 0.00 0.00 64 1014.9
20260903032927 27 34 1.6 3.2 0.00 0.00 0.00 64 1014.9
20260903032826 27 34 0.0 3.2 0.00 0.00 0.00 64 1014.9
20260903032724 27 34 0.0 3.2 0.00 0.00 0.00 64 1015.9
20260903032624 27 34 0.0 3.2 0.00 0.00 0.00 64 1015.9
20260903032527 27 34 0.0 3.2 0.00 0.00 0.00 64 1015.9
20260903032425 27 35 0.0 3.2 0.00 0.00 0.00 64 1015.9
20260903032344 27 35 1.6 3.2 0.00 0.00 0.00 64 1015.9
20260903032305 27 35 1.6 3.2 0.00 0.00 0.00 64 1015.9
20260903032201 27 32 1.6 3.2 0.00 0.00 0.00 64 1015.9
20260903032058 27 34 1.6 4.8 0.00 0.00 0.00 64 1015.9
20260903031935 27 34 1.6 4.8 0.00 0.00 0.00 64 1015.9
20260903031833 27 32 1.6 4.8 0.00 0.00 0.00 64 1015.9
20260903031741 27 34 1.6 4.8 0.00 0.00 0.00 64 1015.9
20260903031655 27 34 0.0 4.8 0.00 0.00 0.00 64 1015.9
20260903031532 27 34 0.0 4.8 0.00 0.00 0.00 64 1015.9
20260903031429 27 34 1.6 4.8 0.00 0.00 0.00 64 1015.9
20260903031348 27 34 1.6 4.8 0.00 0.00 0.00 64 1015.9
20260903031224 27 34 3.2 4.8 0.00 0.00 0.00 64 1015.1
20260903031143 27 34 3.2 4.8 0.00 0.00 0.00 64 1015.1
20260903031041 27 34 1.6 4.8 0.00 0.00 0.00 64 1015.1
20260903030939 27 35 3.2 4.8 0.00 0.00 0.00 64 1015.1
20260903030857 27 34 3.2 4.8 0.00 0.00 0.00 63 1015.1
20260903030759 27 35 3.2 4.8 0.00 0.00 0.00 63 1015.1
20260903030636 27 31 3.2 3.2 0.00 0.00 0.00 63 1015.1
20260903030534 27 34 3.2 3.2 0.00 0.00 0.00 63 1015.1
20260903030430 27 34 3.2 3.2 0.00 0.00 0.00 63 1015.1
20260903030350 27 34 3.2 3.2 0.00 0.00 0.00 63 1015.1
20260903030238 27 34 1.6 3.2 0.00 0.00 0.00 63 1015.1
20260903030148 27 34 1.6 3.2 0.00 0.00 0.00 63 1015.1
20260903030025 27 34 1.6 3.2 0.00 0.00 0.00 63 1015.1
20260903025929 27 34 3.2 3.2 0.00 0.00 0.00 63 1015.1
20260903025846 27 34 3.2 3.2 0.00 0.00 0.00 63 1015.1
20260903025743 27 34 3.2 3.2 0.00 0.00 0.00 63 1015.0
20260903025642 27 32 1.6 3.2 0.00 0.00 0.00 63 1015.0
20260903025541 27 34 1.6 3.2 0.00 0.00 0.00 63 1015.0
20260903025500 27 34 1.6 3.2 0.00 0.00 0.00 63 1015.0
20260903025337 27 35 1.6 3.2 0.00 0.00 0.00 63 1015.0
20260903025235 27 34 1.6 3.2 0.00 0.00 0.00 63 1015.0
20260903025137 27 34 1.6 3.2 0.00 0.00 0.00 63 1015.0
20260903025036 27 35 1.6 3.2 0.00 0.00 0.00 63 1015.0
20260903024933 27 35 3.2 3.2 0.00 0.00 0.00 63 1015.0
20260903024832 27 34 3.2 3.2 0.00 0.00 0.00 63 1015.0
20260903024742 27 34 3.2 3.2 0.00 0.00 0.00 63 1015.0
20260903024651 27 34 3.2 3.2 0.00 0.00 0.00 62 1015.0
20260903024549 27 35 3.2 3.2 0.00 0.00 0.00 63 1015.0
20260903024425 27 34 3.2 3.2 0.00 0.00 0.00 63 1015.0
20260903024328 27 32 1.6 3.2 0.00 0.00 0.00 63 1015.0
20260903024247 27 30 3.2 4.8 0.00 0.00 0.00 63 1015.0
20260903024205 27 34 3.2 4.8 0.00 0.00 0.00 63 1015.0
20260903024041 27 32 1.6 4.8 0.00 0.00 0.00 63 1015.0
20260903023938 27 32 1.6 4.8 0.00 0.00 0.00 64 1015.0
20260903023835 27 32 1.6 4.8 0.00 0.00 0.00 64 1015.0
20260903023733 27 34 1.6 4.8 0.00 0.00 0.00 64 1015.0
20260903023632 27 34 1.6 4.8 0.00 0.00 0.00 64 1015.0
20260903023535 27 30 3.2 4.8 0.00 0.00 0.00 64 1015.0
20260903023434 27 34 3.2 4.8 0.00 0.00 0.00 64 1015.0
20260903023331 27 34 3.2 4.8 0.00 0.00 0.00 64 1015.0
20260903023242 27 32 3.2 4.8 0.00 0.00 0.00 64 1015.0
20260903023152 27 34 3.2 4.8 0.00 0.00 0.00 64 1015.0
20260903023028 27 34 3.2 4.8 0.00 0.00 0.00 64 1015.0
20260903022927 27 32 3.2 3.2 0.00 0.00 0.00 64 1015.0
20260903022850 27 34 3.2 3.2 0.00 0.00 0.00 64 1015.0
20260903022809 27 30 3.2 3.2 0.00 0.00 0.00 63 1015.0
20260903022644 27 34 1.6 3.2 0.00 0.00 0.00 63 1015.0
20260903022603 27 34 1.6 3.2 0.00 0.00 0.00 63 1015.0
20260903022440 27 34 1.6 3.2 0.00 0.00 0.00 63 1015.0
20260903022338 27 31 0.0 3.2 0.00 0.00 0.00 64 1015.0
20260903022237 27 32 0.0 0.0 0.00 0.00 0.00 64 1015.0
20260903022136 27 32 0.0 0.0 0.00 0.00 0.00 64 1015.0
20260903022039 27 32 0.0 0.0 0.00 0.00 0.00 64 1015.0
20260903021937 27 34 0.0 0.0 0.00 0.00 0.00 64 1015.0
20260903021836 27 32 0.0 0.0 0.00 0.00 0.00 64 1015.0
20260903021735 27 34 0.0 0.0 0.00 0.00 0.00 64 1015.0
20260903021704 27 32 0.0 0.0 0.00 0.00 0.00 63 1015.0
20260903021540 27 32 0.0 0.0 0.00 0.00 0.00 63 1015.0
20260903021440 27 34 0.0 0.0 0.00 0.00 0.00 63 1015.0
20260903021342 27 34 0.0 0.0 0.00 0.00 0.00 63 1015.0
20260903021241 27 31 0.0 0.0 0.00 0.00 0.00 64 1015.1
20260903021139 27 34 0.0 0.0 0.00 0.00 0.00 64 1015.1
20260903021058 27 34 0.0 0.0 0.00 0.00 0.00 64 1015.1
20260903020934 27 31 0.0 0.0 0.00 0.00 0.00 63 1015.1
20260903020832 27 30 0.0 0.0 0.00 0.00 0.00 63 1015.1
20260903020731 27 34 0.0 0.0 0.00 0.00 0.00 63 1015.1
20260903020635 27 34 0.0 0.0 0.00 0.00 0.00 63 1015.1
20260903020532 27 34 0.0 0.0 0.00 0.00 0.00 63 1015.1
20260903020434 27 34 0.0 0.0 0.00 0.00 0.00 63 1015.1
20260903020332 27 34 0.0 0.0 0.00 0.00 0.00 63 1015.1
20260903020251 27 34 0.0 0.0 0.00 0.00 0.00 63 1015.1
20260903020221 27 32 0.0 0.0 0.00 0.00 0.00 63 1015.1
20260903020038 27 31 0.0 0.0 0.00 0.00 0.00 63 1015.1
20260903015936 27 32 0.0 0.0 0.00 0.00 0.00 63 1015.1
20260903015839 27 34 0.0 0.0 0.00 0.00 0.00 63 1015.1
20260903015738 27 32 0.0 0.0 0.00 0.00 0.00 63 1014.9
20260903015638 27 31 0.0 0.0 0.00 0.00 0.00 63 1014.9
20260903015536 27 32 0.0 0.0 0.00 0.00 0.00 63 1014.9
20260903015433 27 34 0.0 0.0 0.00 0.00 0.00 63 1014.9
20260903015331 27 32 0.0 0.0 0.00 0.00 0.00 62 1014.9
20260903015234 27 34 0.0 0.0 0.00 0.00 0.00 63 1014.9
20260903015133 27 34 0.0 0.0 0.00 0.00 0.00 62 1014.9
20260903015031 27 34 0.0 0.0 0.00 0.00 0.00 62 1014.9
20260903014928 27 32 0.0 0.0 0.00 0.00 0.00 63 1014.9
20260903014826 27 32 0.0 1.6 0.00 0.00 0.00 63 1014.9
20260903014736 27 32 0.0 3.2 0.00 0.00 0.00 63 1014.9
20260903014645 27 31 0.0 3.2 0.00 0.00 0.00 63 1014.9
20260903014542 27 34 0.0 3.2 0.00 0.00 0.00 63 1014.9
20260903014444 27 34 0.0 3.2 0.00 0.00 0.00 63 1014.9
20260903014342 27 34 0.0 3.2 0.00 0.00 0.00 63 1014.9
20260903014241 27 34 0.0 3.2 0.00 0.00 0.00 63 1014.8
20260903014139 27 31 0.0 3.2 0.00 0.00 0.00 62 1014.8
20260903014059 27 30 0.0 3.2 0.00 0.00 0.00 62 1014.8
20260903013956 27 34 1.6 3.2 0.00 0.00 0.00 62 1014.8
20260903013833 27 32 1.6 3.2 0.00 0.00 0.00 62 1014.8
20260903013731 27 34 1.6 3.2 0.00 0.00 0.00 62 1014.8
20260903013634 27 32 1.6 3.2 0.00 0.00 0.00 62 1014.8
20260903013533 27 30 0.0 3.2 0.00 0.00 0.00 62 1014.8
20260903013431 27 34 0.0 1.6 0.00 0.00 0.00 62 1014.8
20260903013331 27 34 0.0 1.6 0.00 0.00 0.00 62 1014.8
20260903013241 27 32 0.0 1.6 0.00 0.00 0.00 62 1014.8
20260903013150 27 32 0.0 1.6 0.00 0.00 0.00 62 1014.8
20260903013027 27 32 0.0 3.2 0.00 0.00 0.00 62 1014.8
20260903012929 27 31 0.0 3.2 0.00 0.00 0.00 62 1014.8
20260903012847 27 34 0.0 3.2 0.00 0.00 0.00 62 1014.8
20260903012726 27 34 0.0 3.2 0.00 0.00 0.00 62 1014.5
20260903012644 27 34 0.0 3.2 0.00 0.00 0.00 62 1014.5
20260903012542 27 32 0.0 3.2 0.00 0.00 0.00 61 1014.5
20260903012440 27 31 0.0 3.2 0.00 0.00 0.00 61 1014.5
20260903012339 27 34 0.0 3.2 0.00 0.00 0.00 61 1014.5
20260903012242 27 32 1.6 3.2 0.00 0.00 0.00 61 1014.5
20260903012201 27 34 1.6 3.2 0.00 0.00 0.00 60 1014.5
20260903012039 27 32 1.6 1.6 0.00 0.00 0.00 61 1014.5
20260903011957 27 32 1.6 3.2 0.00 0.00 0.00 62 1014.5
20260903011833 27 34 0.0 3.2 0.00 0.00 0.00 62 1014.5
20260903011732 27 31 0.0 3.2 0.00 0.00 0.00 62 1014.5
20260903011702 27 32 0.0 3.2 0.00 0.00 0.00 61 1014.5
20260903011539 28 31 0.0 3.2 0.00 0.00 0.00 60 1014.5
20260903011437 28 34 0.0 3.2 0.00 0.00 0.00 59 1014.5